Wetterdaten: Mittwoch, 30.01.2019
Datum Zeit Temp. Aussen Temp. o. S. +5cm Feuchte Auss Luftdruck Regen Sonnenschein Regendauer Solar Windben Empfang
30.01.2019 00:00 1,4 C 1,1 C 0,0 C 81 % 994,1 hPa 0,0 l/m 0 min 0 min 0 W/m 25,7 km/h (4 Bft) 97,87 %
30.01.2019 00:02 1,4 C 0,6 C 0,0 C 81 % 994,0 hPa 0,0 l/m 0 min 0 min 0 W/m 6,4 km/h (2 Bft) 14,29 %
30.01.2019 00:04 1,4 C 1,1 C 0,0 C 81 % 994,0 hPa 0,0 l/m 0 min 0 min 0 W/m 22,5 km/h (4 Bft) 79,55 %
30.01.2019 00:08 1,4 C 1,1 C 0,0 C 81 % 993,9 hPa 0,0 l/m 0 min 0 min 0 W/m 16,1 km/h (3 Bft) 97,89 %
30.01.2019 00:10 1,3 C 1,1 C 0,0 C 81 % 993,8 hPa 0,0 l/m 0 min 0 min 0 W/m 16,1 km/h (3 Bft) 97,83 %
30.01.2019 00:12 1,4 C 0,6 C 0,0 C 82 % 993,9 hPa 0,0 l/m 0 min 0 min 0 W/m 16,1 km/h (3 Bft) 97,87 %
30.01.2019 00:14 1,3 C 0,6 C 0,0 C 82 % 993,8 hPa 0,0 l/m 0 min 0 min 0 W/m 22,5 km/h (4 Bft) 100,00 %
30.01.2019 00:16 1,3 C 0,6 C 0,0 C 82 % 993,7 hPa 0,0 l/m 0 min 0 min 0 W/m 19,3 km/h (3 Bft) 100,00 %
30.01.2019 00:18 1,3 C 0,6 C 0,0 C 82 % 993,7 hPa 0,0 l/m 0 min 0 min 0 W/m 16,1 km/h (3 Bft) 97,87 %
30.01.2019 00:20 1,3 C 1,1 C 0,0 C 82 % 993,7 hPa 0,0 l/m 0 min 0 min 0 W/m 25,7 km/h (4 Bft) 97,87 %
30.01.2019 00:22 1,3 C 0,6 C 0,0 C 82 % 993,7 hPa 0,0 l/m 0 min 0 min 0 W/m 9,7 km/h (2 Bft) 100,00 %
30.01.2019 00:24 1,3 C 0,6 C 0,0 C 82 % 993,6 hPa 0,0 l/m 0 min 0 min 0 W/m 12,9 km/h (3 Bft) 100,00 %
30.01.2019 00:26 1,3 C 1,1 C 0,0 C 82 % 993,6 hPa 0,0 l/m 0 min 0 min 0 W/m 25,7 km/h (4 Bft) 100,00 %
30.01.2019 00:28 1,3 C 0,6 C 0,0 C 82 % 993,6 hPa 0,0 l/m 0 min 0 min 0 W/m 12,9 km/h (3 Bft) 100,00 %
30.01.2019 00:30 1,3 C 0,6 C 0,0 C 82 % 993,6 hPa 0,0 l/m 0 min 0 min 0 W/m 16,1 km/h (3 Bft) 100,00 %
30.01.2019 00:32 1,3 C 0,6 C 0,0 C 82 % 993,5 hPa 0,0 l/m 0 min 0 min 0 W/m 9,7 km/h (2 Bft) 97,92 %
30.01.2019 00:34 1,3 C 0,6 C 0,0 C 82 % 993,5 hPa 0,0 l/m 0 min 0 min 0 W/m 16,1 km/h (3 Bft) 100,00 %
30.01.2019 00:36 1,3 C 0,6 C 0,0 C 82 % 993,4 hPa 0,0 l/m 0 min 0 min 0 W/m 9,7 km/h (2 Bft) 100,00 %
30.01.2019 00:38 1,3 C 0,6 C 0,0 C 83 % 993,3 hPa 0,0 l/m 0 min 0 min 0 W/m 9,7 km/h (2 Bft) 100,00 %
30.01.2019 00:40 1,3 C 0,6 C 0,0 C 83 % 993,3 hPa 0,0 l/m 0 min 0 min 0 W/m 9,7 km/h (2 Bft) 100,00 %
30.01.2019 00:42 1,2 C 0,6 C 0,0 C 83 % 993,3 hPa 0,0 l/m 0 min 0 min 0 W/m 12,9 km/h (3 Bft) 97,87 %
30.01.2019 00:44 1,2 C 0,6 C 0,0 C 83 % 993,2 hPa 0,0 l/m 0 min 0 min 0 W/m 19,3 km/h (3 Bft) 100,00 %
30.01.2019 00:46 1,2 C 0,6 C 0,0 C 83 % 993,2 hPa 0,0 l/m 0 min 0 min 0 W/m 12,9 km/h (3 Bft) 100,00 %
30.01.2019 00:48 1,2 C 0,6 C 0,0 C 83 % 993,2 hPa 0,0 l/m 0 min 0 min 0 W/m 16,1 km/h (3 Bft) 100,00 %
30.01.2019 00:50 1,2 C 0,6 C 0,0 C 83 % 993,1 hPa 0,0 l/m 0 min 0 min 0 W/m 19,3 km/h (3 Bft) 93,62 %
30.01.2019 00:52 1,2 C 0,6 C 0,0 C 83 % 993,1 hPa 0,0 l/m 0 min 0 min 0 W/m 6,4 km/h (2 Bft) 95,74 %
30.01.2019 00:54 1,2 C 0,6 C 0,0 C 83 % 993,0 hPa 0,0 l/m 0 min 0 min 0 W/m 16,1 km/h (3 Bft) 97,87 %
30.01.2019 00:56 1,2 C 0,6 C 0,0 C 83 % 993,1 hPa 0,0 l/m 0 min 0 min 0 W/m 9,7 km/h (2 Bft) 97,83 %
30.01.2019 00:58 1,2 C 0,6 C 0,0 C 83 % 993,0 hPa 0,0 l/m 0 min 0 min 0 W/m 9,7 km/h (2 Bft) 97,87 %
30.01.2019 01:00 1,1 C 0,6 C 0,0 C 83 % 992,9 hPa 0,0 l/m 0 min 0 min 0 W/m 16,1 km/h (3 Bft) 97,87 %
30.01.2019 01:02 1,1 C 0,6 C 0,0 C 84 % 993,0 hPa 0,0 l/m 0 min 0 min 0 W/m 16,1 km/h (3 Bft) 97,92 %
30.01.2019 01:04 1,1 C 0,6 C 0,0 C 84 % 992,9 hPa 0,0 l/m 0 min 0 min 0 W/m 9,7 km/h (2 Bft) 95,74 %
30.01.2019 01:06 1,1 C 0,6 C 0,0 C 84 % 992,9 hPa 0,0 l/m 0 min 0 min 0 W/m 6,4 km/h (2 Bft) 97,87 %
30.01.2019 01:08 1,1 C 0,6 C 0,0 C 84 % 992,9 hPa 0,0 l/m 0 min 0 min 0 W/m 16,1 km/h (3 Bft) 95,65 %
30.01.2019 01:10 1,1 C 0,6 C 0,0 C 84 % 992,9 hPa 0,0 l/m 0 min 0 min 0 W/m 9,7 km/h (2 Bft) 95,74 %
30.01.2019 01:12 1,1 C 0,6 C 0,0 C 84 % 992,9 hPa 0,0 l/m 0 min 0 min 0 W/m 12,9 km/h (3 Bft) 97,87 %
30.01.2019 01:14 1,1 C 0,6 C 0,0 C 84 % 992,9 hPa 0,0 l/m 0 min 0 min 0 W/m 16,1 km/h (3 Bft) 97,87 %
30.01.2019 01:16 1,1 C 0,6 C 0,0 C 84 % 992,8 hPa 0,0 l/m 0 min 0 min 0 W/m 16,1 km/h (3 Bft) 97,87 %
30.01.2019 01:18 1,1 C 0,6 C 0,0 C 84 % 992,8 hPa 0,0 l/m 0 min 0 min 0 W/m 16,1 km/h (3 Bft) 95,74 %
30.01.2019 01:20 1,1 C 0,6 C 0,0 C 84 % 992,7 hPa 0,0 l/m 0 min 0 min 0 W/m 9,7 km/h (2 Bft) 97,83 %
30.01.2019 01:22 1,1 C 0,6 C 0,0 C 84 % 992,7 hPa 0,0 l/m 0 min 0 min 0 W/m 9,7 km/h (2 Bft) 97,87 %
30.01.2019 01:24 1,1 C 0,6 C 0,0 C 84 % 992,7 hPa 0,0 l/m 0 min 0 min 0 W/m 9,7 km/h (2 Bft) 97,87 %
30.01.2019 01:26 1,1 C 0,6 C 0,0 C 84 % 992,7 hPa 0,0 l/m 0 min 0 min 0 W/m 9,7 km/h (2 Bft) 95,74 %
30.01.2019 01:28 1,1 C 0,6 C 0,0 C 84 % 992,7 hPa 0,0 l/m 0 min 0 min 0 W/m 19,3 km/h (3 Bft) 97,87 %
30.01.2019 01:30 1,1 C 0,6 C 0,0 C 84 % 992,6 hPa 0,0 l/m 0 min 0 min 0 W/m 6,4 km/h (2 Bft) 97,87 %
30.01.2019 01:32 1,0 C 0,6 C 0,0 C 84 % 992,6 hPa 0,0 l/m 0 min 0 min 0 W/m 9,7 km/h (2 Bft) 97,83 %
30.01.2019 01:34 1,0 C 0,6 C 0,0 C 84 % 992,5 hPa 0,0 l/m 0 min 0 min 0 W/m 9,7 km/h (2 Bft) 95,74 %
30.01.2019 01:36 1,0 C 0,6 C -0,6 C 84 % 992,4 hPa 0,0 l/m 0 min 0 min 0 W/m 9,7 km/h (2 Bft) 100,00 %
30.01.2019 01:38 1,0 C 0,6 C -0,6 C 84 % 992,5 hPa 0,0 l/m 0 min 0 min 0 W/m 12,9 km/h (3 Bft) 100,00 %
30.01.2019 01:40 1,0 C 0,6 C 0,0 C 84 % 992,4 hPa 0,0 l/m 0 min 0 min 0 W/m 9,7 km/h (2 Bft) 100,00 %
30.01.2019 01:42 1,0 C 0,6 C -0,6 C 84 % 992,4 hPa 0,0 l/m 0 min 0 min 0 W/m 6,4 km/h (2 Bft) 97,83 %
30.01.2019 01:44 0,9 C 0,6 C -0,6 C 84 % 992,4 hPa 0,0 l/m 0 min 0 min 0 W/m 9,7 km/h (2 Bft) 95,74 %
30.01.2019 01:46 0,9 C 0,6 C -0,6 C 84 % 992,3 hPa 0,0 l/m 0 min 0 min 0 W/m 16,1 km/h (3 Bft) 100,00 %
30.01.2019 01:48 0,9 C 0,6 C -0,6 C 84 % 992,3 hPa 0,0 l/m 0 min 0 min 0 W/m 12,9 km/h (3 Bft) 97,87 %
30.01.2019 01:50 0,9 C 0,6 C 0,0 C 84 % 992,4 hPa 0,0 l/m 0 min 0 min 0 W/m 16,1 km/h (3 Bft) 100,00 %
30.01.2019 01:52 0,9 C 0,6 C -0,6 C 84 % 992,3 hPa 0,0 l/m 0 min 0 min 0 W/m 9,7 km/h (2 Bft) 100,00 %
30.01.2019 01:54 0,9 C 0,6 C -0,6 C 84 % 992,3 hPa 0,0 l/m 0 min 0 min 0 W/m 9,7 km/h (2 Bft) 100,00 %
30.01.2019 01:56 0,9 C 0,6 C -0,6 C 84 % 992,3 hPa 0,0 l/m 0 min 0 min 0 W/m 16,1 km/h (3 Bft) 95,74 %
30.01.2019 01:58 0,9 C 0,6 C -0,6 C 84 % 992,2 hPa 0,0 l/m 0 min 0 min 0 W/m 9,7 km/h (2 Bft) 100,00 %
30.01.2019 02:00 0,9 C 0,0 C -0,6 C 84 % 992,2 hPa 0,0 l/m 0 min 0 min 0 W/m 9,7 km/h (2 Bft) 100,00 %
30.01.2019 02:02 0,9 C 0,6 C -0,6 C 84 % 992,2 hPa 0,0 l/m 0 min 0 min 0 W/m 12,9 km/h (3 Bft) 100,00 %
30.01.2019 02:04 0,9 C 0,6 C -0,6 C 84 % 992,2 hPa 0,0 l/m 0 min 0 min 0 W/m 12,9 km/h (3 Bft) 100,00 %
30.01.2019 02:06 0,9 C 0,0 C -0,6 C 84 % 992,1 hPa 0,0 l/m 0 min 0 min 0 W/m 12,9 km/h (3 Bft) 95,65 %
30.01.2019 02:08 0,9 C 0,0 C -0,6 C 84 % 992,1 hPa 0,0 l/m 0 min 0 min 0 W/m 12,9 km/h (3 Bft) 100,00 %
30.01.2019 02:10 0,8 C 0,0 C -0,6 C 84 % 992,1 hPa 0,0 l/m 0 min 0 min 0 W/m 9,7 km/h (2 Bft) 97,87 %
30.01.2019 02:12 0,8 C 0,0 C -0,6 C 84 % 992,1 hPa 0,0 l/m 0 min 0 min 0 W/m 12,9 km/h (3 Bft) 97,87 %
30.01.2019 02:14 0,8 C 0,0 C -0,6 C 84 % 992,0 hPa 0,0 l/m 0 min 0 min 0 W/m 9,7 km/h (2 Bft) 97,87 %
30.01.2019 02:16 0,8 C 0,0 C -0,6 C 84 % 992,0 hPa 0,0 l/m 0 min 0 min 0 W/m 12,9 km/h (3 Bft) 93,62 %
30.01.2019 02:18 0,8 C 0,0 C -0,6 C 84 % 991,9 hPa 0,0 l/m 0 min 0 min 0 W/m 6,4 km/h (2 Bft) 95,65 %
30.01.2019 02:20 0,8 C 0,0 C -0,6 C 84 % 991,9 hPa 0,0 l/m 0 min 0 min 0 W/m 6,4 km/h (2 Bft) 95,74 %
30.01.2019 02:22 0,7 C 0,0 C -0,6 C 84 % 991,9 hPa 0,0 l/m 0 min 0 min 0 W/m 12,9 km/h (3 Bft) 95,74 %
30.01.2019 02:24 0,7 C 0,0 C -0,6 C 84 % 991,9 hPa 0,0 l/m 0 min 0 min 0 W/m 12,9 km/h (3 Bft) 95,74 %
30.01.2019 02:26 0,7 C 0,0 C -0,6 C 84 % 991,9 hPa 0,0 l/m 0 min 0 min 0 W/m 9,7 km/h (2 Bft) 95,74 %
30.01.2019 02:28 0,7 C 0,0 C -0,6 C 84 % 991,9 hPa 0,0 l/m 0 min 0 min 0 W/m 12,9 km/h (3 Bft) 95,74 %
30.01.2019 02:30 0,7 C 0,0 C -0,6 C 84 % 991,8 hPa 0,0 l/m 0 min 0 min 0 W/m 9,7 km/h (2 Bft) 95,65 %
30.01.2019 02:32 0,6 C 0,0 C -0,6 C 84 % 991,8 hPa 0,0 l/m 0 min 0 min 0 W/m 16,1 km/h (3 Bft) 95,74 %
30.01.2019 02:34 0,6 C 0,0 C -0,6 C 85 % 991,8 hPa 0,0 l/m 0 min 0 min 0 W/m 12,9 km/h (3 Bft) 95,83 %
30.01.2019 02:36 0,6 C 0,0 C -1,1 C 85 % 991,8 hPa 0,0 l/m 0 min 0 min 0 W/m 9,7 km/h (2 Bft) 95,74 %
30.01.2019 02:38 0,5 C 0,0 C -1,1 C 85 % 991,8 hPa 0,0 l/m 0 min 0 min 0 W/m 6,4 km/h (2 Bft) 95,74 %
30.01.2019 02:40 0,5 C 0,0 C -1,1 C 85 % 991,8 hPa 0,0 l/m 0 min 0 min 0 W/m 19,3 km/h (3 Bft) 95,65 %
30.01.2019 02:42 0,5 C 0,0 C -1,1 C 85 % 991,7 hPa 0,0 l/m 0 min 0 min 0 W/m 12,9 km/h (3 Bft) 93,62 %
30.01.2019 02:44 0,5 C 0,0 C -1,1 C 85 % 991,8 hPa 0,0 l/m 0 min 0 min 0 W/m 12,9 km/h (3 Bft) 93,62 %
30.01.2019 02:46 0,5 C 0,0 C -1,1 C 85 % 991,8 hPa 0,0 l/m 0 min 0 min 0 W/m 6,4 km/h (2 Bft) 93,62 %
30.01.2019 02:48 0,5 C 0,0 C -1,1 C 85 % 991,8 hPa 0,0 l/m 0 min 0 min 0 W/m 9,7 km/h (2 Bft) 95,74 %
30.01.2019 02:50 0,5 C 0,0 C -1,1 C 85 % 991,7 hPa 0,0 l/m 0 min 0 min 0 W/m 9,7 km/h (2 Bft) 95,74 %
30.01.2019 02:52 0,5 C 0,0 C -1,1 C 85 % 991,6 hPa 0,0 l/m 0 min 0 min 0 W/m 6,4 km/h (2 Bft) 95,65 %
30.01.2019 02:54 0,5 C 0,0 C -1,1 C 85 % 991,6 hPa 0,0 l/m 0 min 0 min 0 W/m 9,7 km/h (2 Bft) 95,74 %
30.01.2019 02:56 0,5 C 0,0 C -1,1 C 85 % 991,6 hPa 0,0 l/m 0 min 0 min 0 W/m 16,1 km/h (3 Bft) 95,74 %
30.01.2019 02:58 0,5 C 0,0 C -1,1 C 85 % 991,6 hPa 0,0 l/m 0 min 0 min 0 W/m 6,4 km/h (2 Bft) 93,62 %
30.01.2019 03:00 0,4 C 0,0 C -1,1 C 85 % 991,5 hPa 0,0 l/m 0 min 0 min 0 W/m 6,4 km/h (2 Bft) 95,74 %
30.01.2019 03:02 0,4 C 0,0 C -1,1 C 85 % 991,5 hPa 0,0 l/m 0 min 0 min 0 W/m 9,7 km/h (2 Bft) 95,74 %
30.01.2019 03:04 0,4 C 0,0 C -1,1 C 85 % 991,5 hPa 0,0 l/m 0 min 0 min 0 W/m 6,4 km/h (2 Bft) 93,48 %
30.01.2019 03:06 0,4 C 0,0 C -1,1 C 85 % 991,4 hPa 0,0 l/m 0 min 0 min 0 W/m 9,7 km/h (2 Bft) 97,87 %
30.01.2019 03:08 0,4 C 0,0 C -1,1 C 85 % 991,4 hPa 0,0 l/m 0 min 0 min 0 W/m 9,7 km/h (2 Bft) 97,87 %
30.01.2019 03:10 0,4 C 0,0 C -1,1 C 85 % 991,4 hPa 0,0 l/m 0 min 0 min 0 W/m 9,7 km/h (2 Bft) 97,87 %
30.01.2019 03:12 0,4 C 0,0 C -1,1 C 85 % 991,3 hPa 0,0 l/m 0 min 0 min 0 W/m 16,1 km/h (3 Bft) 97,87 %
30.01.2019 03:14 0,4 C 0,0 C -0,6 C 85 % 991,3 hPa 0,0 l/m 0 min 0 min 0 W/m 12,9 km/h (3 Bft) 100,00 %
30.01.2019 03:16 0,4 C 0,0 C -0,6 C 85 % 991,3 hPa 0,0 l/m 0 min 0 min 0 W/m 9,7 km/h (2 Bft) 97,83 %
30.01.2019 03:18 0,4 C 0,0 C -0,6 C 85 % 991,3 hPa 0,0 l/m 0 min 0 min 0 W/m 12,9 km/h (3 Bft) 97,87 %
30.01.2019 03:20 0,4 C 0,0 C -0,6 C 85 % 991,2 hPa 0,0 l/m 0 min 0 min 0 W/m 9,7 km/h (2 Bft) 100,00 %
30.01.2019 03:22 0,4 C 0,0 C -0,6 C 85 % 991,1 hPa 0,0 l/m 0 min 0 min 0 W/m 9,7 km/h (2 Bft) 100,00 %
30.01.2019 03:24 0,4 C 0,0 C -0,6 C 85 % 991,1 hPa 0,0 l/m 0 min 0 min 0 W/m 9,7 km/h (2 Bft) 100,00 %
30.01.2019 03:26 0,4 C 0,0 C -1,1 C 85 % 991,0 hPa 0,0 l/m 0 min 0 min 0 W/m 9,7 km/h (2 Bft) 100,00 %
30.01.2019 03:28 0,4 C 0,0 C -1,1 C 85 % 991,1 hPa 0,0 l/m 0 min 0 min 0 W/m 6,4 km/h (2 Bft) 97,87 %
30.01.2019 03:30 0,4 C 0,0 C -0,6 C 86 % 991,1 hPa 0,0 l/m 0 min 0 min 0 W/m 9,7 km/h (2 Bft) 97,87 %
30.01.2019 03:32 0,5 C 0,0 C -0,6 C 85 % 991,0 hPa 0,0 l/m 0 min 0 min 0 W/m 12,9 km/h (3 Bft) 100,00 %
30.01.2019 03:34 0,5 C 0,0 C -0,6 C 85 % 991,0 hPa 0,0 l/m 0 min 0 min 0 W/m 12,9 km/h (3 Bft) 97,87 %
30.01.2019 03:36 0,5 C 0,0 C -0,6 C 85 % 991,0 hPa 0,0 l/m 0 min 0 min 0 W/m 19,3 km/h (3 Bft) 95,74 %
30.01.2019 03:38 0,5 C 0,0 C -0,6 C 85 % 991,0 hPa 0,0 l/m 0 min 0 min 0 W/m 12,9 km/h (3 Bft) 97,83 %
30.01.2019 03:40 0,5 C 0,0 C -0,6 C 85 % 991,0 hPa 0,0 l/m 0 min 0 min 0 W/m 9,7 km/h (2 Bft) 97,87 %
30.01.2019 03:42 0,5 C 0,0 C -0,6 C 85 % 990,9 hPa 0,0 l/m 0 min 0 min 0 W/m 9,7 km/h (2 Bft) 95,74 %
30.01.2019 03:44 0,5 C 0,0 C -0,6 C 85 % 990,9 hPa 0,0 l/m 0 min 0 min 0 W/m 16,1 km/h (3 Bft) 95,74 %
30.01.2019 03:46 0,5 C 0,0 C -0,6 C 85 % 990,9 hPa 0,0 l/m 0 min 0 min 0 W/m 9,7 km/h (2 Bft) 95,74 %
30.01.2019 03:48 0,5 C 0,0 C -0,6 C 85 % 990,9 hPa 0,0 l/m 0 min 0 min 0 W/m 12,9 km/h (3 Bft) 97,87 %
30.01.2019 03:50 0,5 C 0,0 C -0,6 C 85 % 990,9 hPa 0,0 l/m 0 min 0 min 0 W/m 16,1 km/h (3 Bft) 97,83 %
30.01.2019 03:52 0,5 C 0,0 C -0,6 C 85 % 990,9 hPa 0,0 l/m 0 min 0 min 0 W/m 19,3 km/h (3 Bft) 97,87 %
30.01.2019 03:54 0,5 C 0,0 C -0,6 C 85 % 990,9 hPa 0,0 l/m 0 min 0 min 0 W/m 12,9 km/h (3 Bft) 95,74 %
30.01.2019 03:56 0,5 C 0,0 C -0,6 C 84 % 990,8 hPa 0,0 l/m 0 min 0 min 0 W/m 12,9 km/h (3 Bft) 95,74 %
30.01.2019 03:58 0,5 C 0,0 C -0,6 C 84 % 990,9 hPa 0,0 l/m 0 min 0 min 0 W/m 12,9 km/h (3 Bft) 97,87 %
30.01.2019 04:00 0,5 C 0,0 C -0,6 C 84 % 990,8 hPa 0,0 l/m 0 min 0 min 0 W/m 12,9 km/h (3 Bft) 97,87 %
30.01.2019 04:02 0,5 C 0,0 C -0,6 C 84 % 990,8 hPa 0,0 l/m 0 min 0 min 0 W/m 9,7 km/h (2 Bft) 100,00 %
30.01.2019 04:04 0,5 C 0,0 C -0,6 C 84 % 990,8 hPa 0,0 l/m 0 min 0 min 0 W/m 12,9 km/h (3 Bft) 97,87 %
30.01.2019 04:06 0,5 C 0,0 C -0,6 C 84 % 990,7 hPa 0,0 l/m 0 min 0 min 0 W/m 6,4 km/h (2 Bft) 100,00 %
30.01.2019 04:08 0,5 C 0,0 C -0,6 C 84 % 990,7 hPa 0,0 l/m 0 min 0 min 0 W/m 6,4 km/h (2 Bft) 97,87 %
30.01.2019 04:10 0,5 C 0,0 C -0,6 C 84 % 990,7 hPa 0,0 l/m 0 min 0 min 0 W/m 6,4 km/h (2 Bft) 95,74 %
30.01.2019 04:12 0,5 C 0,0 C -1,1 C 84 % 990,6 hPa 0,0 l/m 0 min 0 min 0 W/m 6,4 km/h (2 Bft) 95,65 %
30.01.2019 04:14 0,5 C -0,6 C -1,1 C 84 % 990,6 hPa 0,0 l/m 0 min 0 min 0 W/m 6,4 km/h (2 Bft) 100,00 %
30.01.2019 04:16 0,5 C -0,6 C -1,1 C 84 % 990,6 hPa 0,0 l/m 0 min 0 min 0 W/m 6,4 km/h (2 Bft) 97,87 %
30.01.2019 04:18 0,5 C -0,6 C -1,1 C 84 % 990,6 hPa 0,0 l/m 0 min 0 min 0 W/m 6,4 km/h (2 Bft) 97,87 %
30.01.2019 04:20 0,4 C -0,6 C -1,1 C 84 % 990,6 hPa 0,0 l/m 0 min 0 min 0 W/m 9,7 km/h (2 Bft) 95,74 %
30.01.2019 04:22 0,4 C 0,0 C -1,1 C 84 % 990,6 hPa 0,0 l/m 0 min 0 min 0 W/m 12,9 km/h (3 Bft) 100,00 %
30.01.2019 04:24 0,4 C 0,0 C -1,1 C 84 % 990,6 hPa 0,0 l/m 0 min 0 min 0 W/m 9,7 km/h (2 Bft) 97,83 %
30.01.2019 04:26 0,4 C -0,6 C -1,1 C 84 % 990,6 hPa 0,0 l/m 0 min 0 min 0 W/m 9,7 km/h (2 Bft) 97,87 %
30.01.2019 04:28 0,3 C -0,6 C -1,1 C 84 % 990,5 hPa 0,0 l/m 0 min 0 min 0 W/m 6,4 km/h (2 Bft) 100,00 %
30.01.2019 04:30 0,3 C -0,6 C -1,1 C 84 % 990,5 hPa 0,0 l/m 0 min 0 min 0 W/m 6,4 km/h (2 Bft) 100,00 %
30.01.2019 04:32 0,3 C -0,6 C -1,1 C 84 % 990,5 hPa 0,0 l/m 0 min 0 min 0 W/m 6,4 km/h (2 Bft) 100,00 %
30.01.2019 04:34 0,3 C -0,6 C -1,7 C 84 % 990,5 hPa 0,0 l/m 0 min 0 min 0 W/m 6,4 km/h (2 Bft) 97,87 %
30.01.2019 04:36 0,2 C -0,6 C -1,7 C 84 % 990,6 hPa 0,0 l/m 0 min 0 min 0 W/m 6,4 km/h (2 Bft) 100,00 %
30.01.2019 04:38 0,2 C -0,6 C -1,7 C 85 % 990,6 hPa 0,0 l/m 0 min 0 min 0 W/m 6,4 km/h (2 Bft) 97,87 %
30.01.2019 04:40 0,2 C -0,6 C -1,1 C 85 % 990,5 hPa 0,0 l/m 0 min 0 min 0 W/m 12,9 km/h (3 Bft) 97,87 %
30.01.2019 04:42 0,2 C -0,6 C -1,1 C 85 % 990,6 hPa 0,0 l/m 0 min 0 min 0 W/m 3,2 km/h (1 Bft) 100,00 %
30.01.2019 04:44 0,2 C -0,6 C -1,7 C 85 % 990,6 hPa 0,0 l/m 0 min 0 min 0 W/m 6,4 km/h (2 Bft) 100,00 %
30.01.2019 04:46 0,2 C -0,6 C -1,7 C 85 % 990,5 hPa 0,0 l/m 0 min 0 min 0 W/m 3,2 km/h (1 Bft) 100,00 %
30.01.2019 04:48 0,2 C -0,6 C -1,7 C 85 % 990,5 hPa 0,0 l/m 0 min 0 min 0 W/m 3,2 km/h (1 Bft) 97,83 %
30.01.2019 04:50 0,2 C -0,6 C -1,7 C 85 % 990,5 hPa 0,0 l/m 0 min 0 min 0 W/m 3,2 km/h (1 Bft) 100,00 %
30.01.2019 04:52 0,2 C -0,6 C -1,7 C 85 % 990,5 hPa 0,0 l/m 0 min 0 min 0 W/m 6,4 km/h (2 Bft) 97,87 %
30.01.2019 04:54 0,1 C -0,6 C -1,7 C 85 % 990,5 hPa 0,0 l/m 0 min 0 min 0 W/m 3,2 km/h (1 Bft) 97,87 %
30.01.2019 04:56 0,1 C -0,6 C -1,7 C 85 % 990,5 hPa 0,0 l/m 0 min 0 min 0 W/m 3,2 km/h (1 Bft) 97,87 %
30.01.2019 04:58 0,1 C -0,6 C -1,7 C 85 % 990,5 hPa 0,0 l/m 0 min 0 min 0 W/m 3,2 km/h (1 Bft) 97,87 %
30.01.2019 05:00 0,1 C -1,1 C -1,7 C 85 % 990,5 hPa 0,0 l/m 0 min 0 min 0 W/m 3,2 km/h (1 Bft) 95,65 %
30.01.2019 05:02 0,1 C -1,1 C -1,7 C 85 % 990,4 hPa 0,0 l/m 0 min 0 min 0 W/m 3,2 km/h (1 Bft) 97,87 %
30.01.2019 05:04 0,1 C -1,1 C -1,7 C 85 % 990,3 hPa 0,0 l/m 0 min 0 min 0 W/m 6,4 km/h (2 Bft) 100,00 %
30.01.2019 05:05 0,1 C -1,1 C -1,7 C 85 % 990,4 hPa 0,0 l/m 0 min 0 min 0 W/m 6,4 km/h (2 Bft) 100,00 %
30.01.2019 05:10 0,0 C -1,1 C -1,7 C 85 % 990,4 hPa 0,0 l/m 0 min 0 min 0 W/m 6,4 km/h (2 Bft) 100,00 %
30.01.2019 05:12 0,0 C -1,1 C -1,7 C 85 % 990,4 hPa 0,0 l/m 0 min 0 min 0 W/m 3,2 km/h (1 Bft) 91,67 %
30.01.2019 05:14 -0,1 C -1,1 C -1,7 C 85 % 990,3 hPa 0,0 l/m 0 min 0 min 0 W/m 6,4 km/h (2 Bft) 95,74 %
30.01.2019 05:16 -0,1 C -1,1 C -1,7 C 85 % 990,3 hPa 0,0 l/m 0 min 0 min 0 W/m 6,4 km/h (2 Bft) 100,00 %
30.01.2019 05:18 -0,1 C -1,1 C -1,7 C 85 % 990,3 hPa 0,0 l/m 0 min 0 min 0 W/m 6,4 km/h (2 Bft) 95,83 %
30.01.2019 05:20 -0,1 C -1,1 C -1,7 C 85 % 990,3 hPa 0,0 l/m 0 min 0 min 0 W/m 3,2 km/h (1 Bft) 97,83 %
30.01.2019 05:22 -0,1 C -0,6 C -1,7 C 85 % 990,3 hPa 0,0 l/m 0 min 0 min 0 W/m 6,4 km/h (2 Bft) 97,87 %
30.01.2019 05:24 -0,1 C -0,6 C -1,7 C 85 % 990,3 hPa 0,0 l/m 0 min 0 min 0 W/m 3,2 km/h (1 Bft) 97,87 %
30.01.2019 05:26 -0,1 C -0,6 C -1,7 C 85 % 990,3 hPa 0,0 l/m 0 min 0 min 0 W/m 6,4 km/h (2 Bft) 95,24 %
30.01.2019 05:28 -0,1 C -0,6 C -1,7 C 86 % 990,2 hPa 0,0 l/m 0 min 0 min 0 W/m 6,4 km/h (2 Bft) 97,87 %
30.01.2019 05:30 -0,1 C 0,0 C -1,1 C 86 % 990,2 hPa 0,0 l/m 0 min 0 min 0 W/m 6,4 km/h (2 Bft) 97,83 %
30.01.2019 05:32 0,0 C 0,0 C -1,1 C 86 % 990,2 hPa 0,0 l/m 0 min 0 min 0 W/m 9,7 km/h (2 Bft) 96,00 %
30.01.2019 05:34 0,1 C 0,0 C -1,1 C 86 % 990,3 hPa 0,0 l/m 0 min 0 min 0 W/m 9,7 km/h (2 Bft) 97,87 %
30.01.2019 05:36 0,1 C 0,0 C -0,6 C 86 % 990,3 hPa 0,0 l/m 0 min 0 min 0 W/m 6,4 km/h (2 Bft) 97,87 %
30.01.2019 05:38 0,2 C 0,0 C -0,6 C 86 % 990,3 hPa 0,0 l/m 0 min 0 min 0 W/m 6,4 km/h (2 Bft) 97,87 %
30.01.2019 05:40 0,2 C 0,0 C -0,6 C 85 % 990,3 hPa 0,0 l/m 0 min 0 min 0 W/m 9,7 km/h (2 Bft) 95,83 %
30.01.2019 05:42 0,2 C 0,0 C -0,6 C 85 % 990,3 hPa 0,0 l/m 0 min 0 min 0 W/m 9,7 km/h (2 Bft) 100,00 %
30.01.2019 05:44 0,3 C 0,0 C -0,6 C 85 % 990,4 hPa 0,0 l/m 0 min 0 min 0 W/m 6,4 km/h (2 Bft) 95,74 %
30.01.2019 05:46 0,3 C 0,0 C -0,6 C 85 % 990,3 hPa 0,0 l/m 0 min 0 min 0 W/m 6,4 km/h (2 Bft) 95,74 %
30.01.2019 05:48 0,4 C 0,0 C -0,6 C 85 % 990,3 hPa 0,0 l/m 0 min 0 min 0 W/m 9,7 km/h (2 Bft) 95,74 %
30.01.2019 05:50 0,4 C 0,0 C -0,6 C 84 % 990,3 hPa 0,0 l/m 0 min 0 min 0 W/m 6,4 km/h (2 Bft) 95,74 %
30.01.2019 05:52 0,4 C 0,0 C -0,6 C 84 % 990,3 hPa 0,0 l/m 0 min 0 min 0 W/m 9,7 km/h (2 Bft) 93,48 %
30.01.2019 05:54 0,4 C 0,0 C -0,6 C 84 % 990,3 hPa 0,0 l/m 0 min 0 min 0 W/m 9,7 km/h (2 Bft) 97,87 %
30.01.2019 05:56 0,5 C 0,0 C -0,6 C 84 % 990,3 hPa 0,0 l/m 0 min 0 min 0 W/m 9,7 km/h (2 Bft) 97,87 %
30.01.2019 05:58 0,5 C 0,0 C -0,6 C 84 % 990,2 hPa 0,0 l/m 0 min 0 min 0 W/m 6,4 km/h (2 Bft) 97,87 %
30.01.2019 06:00 0,5 C 0,0 C -0,6 C 84 % 990,1 hPa 0,0 l/m 0 min 0 min 0 W/m 6,4 km/h (2 Bft) 97,87 %
30.01.2019 06:02 0,5 C 0,0 C -0,6 C 84 % 990,1 hPa 0,0 l/m 0 min 0 min 0 W/m 9,7 km/h (2 Bft) 97,87 %
30.01.2019 06:05 0,5 C 0,0 C -0,6 C 83 % 990,1 hPa 0,0 l/m 0 min 0 min 0 W/m 9,7 km/h (2 Bft) 97,14 %
30.01.2019 06:06 0,5 C 0,0 C -0,6 C 83 % 990,1 hPa 0,0 l/m 0 min 0 min 0 W/m 6,4 km/h (2 Bft) 100,00 %
30.01.2019 06:08 0,5 C 0,0 C -1,1 C 83 % 990,0 hPa 0,0 l/m 0 min 0 min 0 W/m 6,4 km/h (2 Bft) 97,22 %
30.01.2019 06:10 0,5 C 0,0 C -1,1 C 83 % 990,0 hPa 0,0 l/m 0 min 0 min 0 W/m 6,4 km/h (2 Bft) 97,83 %
30.01.2019 06:12 0,5 C 0,0 C -1,1 C 83 % 990,1 hPa 0,0 l/m 0 min 0 min 0 W/m 6,4 km/h (2 Bft) 95,74 %
30.01.2019 06:14 0,5 C -0,6 C -1,1 C 83 % 990,1 hPa 0,0 l/m 0 min 0 min 0 W/m 6,4 km/h (2 Bft) 95,24 %
30.01.2019 06:16 0,5 C -0,6 C -1,1 C 83 % 990,1 hPa 0,0 l/m 0 min 0 min 0 W/m 6,4 km/h (2 Bft) 95,92 %
30.01.2019 06:18 0,5 C -0,6 C -1,1 C 83 % 990,1 hPa 0,0 l/m 0 min 0 min 0 W/m 6,4 km/h (2 Bft) 95,83 %
30.01.2019 06:20 0,5 C -0,6 C -1,1 C 83 % 990,1 hPa 0,0 l/m 0 min 0 min 0 W/m 6,4 km/h (2 Bft) 93,88 %
30.01.2019 06:22 0,4 C -0,6 C -1,1 C 84 % 990,1 hPa 0,0 l/m 0 min 0 min 0 W/m 3,2 km/h (1 Bft) 95,65 %
30.01.2019 06:24 0,4 C -0,6 C -1,1 C 84 % 990,1 hPa 0,0 l/m 0 min 0 min 0 W/m 6,4 km/h (2 Bft) 91,49 %
30.01.2019 06:26 0,4 C -0,6 C -1,1 C 84 % 990,1 hPa 0,0 l/m 0 min 0 min 0 W/m 6,4 km/h (2 Bft) 95,24 %
30.01.2019 06:28 0,4 C -0,6 C -1,1 C 84 % 990,0 hPa 0,0 l/m 0 min 0 min 0 W/m 6,4 km/h (2 Bft) 95,92 %
30.01.2019 06:30 0,4 C -0,6 C -1,1 C 84 % 990,0 hPa 0,0 l/m 0 min 0 min 0 W/m 6,4 km/h (2 Bft) 93,75 %
30.01.2019 06:32 0,3 C -0,6 C -1,1 C 84 % 990,0 hPa 0,0 l/m 0 min 0 min 0 W/m 3,2 km/h (1 Bft) 95,92 %
30.01.2019 06:34 0,3 C -0,6 C -1,1 C 84 % 990,0 hPa 0,0 l/m 0 min 0 min 0 W/m 6,4 km/h (2 Bft) 95,65 %
30.01.2019 06:36 0,3 C -0,6 C -1,1 C 84 % 989,9 hPa 0,0 l/m 0 min 0 min 0 W/m 6,4 km/h (2 Bft) 96,36 %
30.01.2019 06:38 0,3 C -0,6 C -1,1 C 84 % 990,0 hPa 0,0 l/m 0 min 0 min 0 W/m 6,4 km/h (2 Bft) 94,59 %
30.01.2019 06:40 0,3 C -0,6 C -1,1 C 84 % 989,9 hPa 0,0 l/m 0 min 0 min 0 W/m 6,4 km/h (2 Bft) 93,88 %
30.01.2019 06:42 0,3 C -0,6 C -1,1 C 84 % 989,9 hPa 0,0 l/m 0 min 0 min 0 W/m 6,4 km/h (2 Bft) 95,74 %
30.01.2019 06:44 0,2 C -0,6 C -1,7 C 84 % 989,9 hPa 0,0 l/m 0 min 0 min 0 W/m 6,4 km/h (2 Bft) 95,74 %
30.01.2019 06:46 0,2 C -0,6 C -1,7 C 84 % 989,9 hPa 0,0 l/m 0 min 0 min 0 W/m 6,4 km/h (2 Bft) 97,83 %
30.01.2019 06:48 0,2 C -0,6 C -1,1 C 84 % 989,9 hPa 0,0 l/m 0 min 0 min 0 W/m 3,2 km/h (1 Bft) 97,87 %
30.01.2019 06:50 0,2 C -0,6 C -1,1 C 85 % 989,9 hPa 0,0 l/m 0 min 0 min 0 W/m 6,4 km/h (2 Bft) 97,67 %
30.01.2019 06:52 0,2 C -0,6 C -1,1 C 85 % 989,9 hPa 0,0 l/m 0 min 0 min 0 W/m 3,2 km/h (1 Bft) 93,88 %
30.01.2019 06:54 0,2 C -0,6 C -1,1 C 84 % 989,9 hPa 0,0 l/m 0 min 0 min 0 W/m 3,2 km/h (1 Bft) 97,92 %
30.01.2019 06:56 0,1 C -0,6 C -1,1 C 85 % 989,9 hPa 0,0 l/m 0 min 0 min 0 W/m 3,2 km/h (1 Bft) 97,87 %
30.01.2019 06:58 0,1 C -0,6 C -1,1 C 85 % 989,9 hPa 0,0 l/m 0 min 0 min 0 W/m 6,4 km/h (2 Bft) 95,74 %
30.01.2019 07:00 0,1 C -0,6 C -1,7 C 85 % 989,9 hPa 0,0 l/m 0 min 0 min 0 W/m 6,4 km/h (2 Bft) 100,00 %
30.01.2019 07:02 0,1 C -0,6 C -1,1 C 85 % 989,9 hPa 0,0 l/m 0 min 0 min 0 W/m 6,4 km/h (2 Bft) 97,67 %
30.01.2019 07:04 0,1 C -0,6 C -1,1 C 85 % 989,8 hPa 0,0 l/m 0 min 0 min 0 W/m 3,2 km/h (1 Bft) 100,00 %
30.01.2019 07:08 0,1 C -0,6 C -1,7 C 85 % 989,8 hPa 0,0 l/m 0 min 0 min 0 W/m 6,4 km/h (2 Bft) 100,00 %
30.01.2019 07:10 0,1 C -0,6 C -1,7 C 85 % 989,9 hPa 0,0 l/m 0 min 0 min 0 W/m 3,2 km/h (1 Bft) 100,00 %
30.01.2019 07:12 0,0 C -0,6 C -1,7 C 85 % 989,8 hPa 0,0 l/m 0 min 0 min 0 W/m 6,4 km/h (2 Bft) 100,00 %
30.01.2019 07:14 0,0 C -0,6 C -1,1 C 85 % 989,8 hPa 0,0 l/m 0 min 0 min 0 W/m 3,2 km/h (1 Bft) 100,00 %
30.01.2019 07:16 0,0 C -0,6 C -1,1 C 85 % 989,8 hPa 0,0 l/m 0 min 0 min 0 W/m 6,4 km/h (2 Bft) 100,00 %
30.01.2019 07:18 0,0 C -0,6 C -1,1 C 85 % 989,8 hPa 0,0 l/m 0 min 0 min 0 W/m 9,7 km/h (2 Bft) 97,14 %
30.01.2019 07:20 0,1 C 0,0 C -1,1 C 85 % 989,8 hPa 0,0 l/m 0 min 0 min 0 W/m 6,4 km/h (2 Bft) 97,92 %
30.01.2019 07:22 0,1 C 0,0 C -1,1 C 86 % 989,8 hPa 0,0 l/m 0 min 0 min 0 W/m 6,4 km/h (2 Bft) 100,00 %
30.01.2019 07:24 0,1 C 0,0 C -0,6 C 86 % 989,8 hPa 0,0 l/m 0 min 0 min 0 W/m 9,7 km/h (2 Bft) 100,00 %
30.01.2019 07:26 0,2 C 0,0 C -0,6 C 85 % 989,9 hPa 0,0 l/m 0 min 0 min 0 W/m 9,7 km/h (2 Bft) 100,00 %
30.01.2019 07:28 0,2 C 0,0 C -0,6 C 85 % 989,8 hPa 0,0 l/m 0 min 0 min 0 W/m 6,4 km/h (2 Bft) 100,00 %
30.01.2019 07:30 0,2 C 0,0 C -0,6 C 85 % 989,7 hPa 0,0 l/m 0 min 0 min 0 W/m 9,7 km/h (2 Bft) 100,00 %
30.01.2019 07:32 0,3 C 0,0 C -0,6 C 85 % 989,7 hPa 0,0 l/m 0 min 0 min 0 W/m 9,7 km/h (2 Bft) 100,00 %
30.01.2019 07:34 0,3 C 0,0 C -0,6 C 84 % 989,7 hPa 0,0 l/m 0 min 0 min 0 W/m 9,7 km/h (2 Bft) 97,87 %
30.01.2019 07:36 0,4 C 0,0 C -0,6 C 84 % 989,7 hPa 0,0 l/m 0 min 0 min 0 W/m 9,7 km/h (2 Bft) 100,00 %
30.01.2019 07:38 0,5 C 0,0 C -0,6 C 83 % 989,7 hPa 0,0 l/m 0 min 0 min 0 W/m 12,9 km/h (3 Bft) 97,14 %
30.01.2019 07:40 0,5 C 0,0 C -0,6 C 83 % 989,6 hPa 0,0 l/m 0 min 0 min 0 W/m 9,7 km/h (2 Bft) 97,92 %
30.01.2019 07:42 0,5 C 0,0 C -0,6 C 83 % 989,6 hPa 0,0 l/m 0 min 0 min 0 W/m 9,7 km/h (2 Bft) 100,00 %
30.01.2019 07:44 0,5 C 0,0 C -0,6 C 83 % 989,6 hPa 0,0 l/m 0 min 0 min 0 W/m 9,7 km/h (2 Bft) 100,00 %
30.01.2019 07:46 0,5 C 0,0 C -0,6 C 82 % 989,6 hPa 0,0 l/m 0 min 0 min 0 W/m 9,7 km/h (2 Bft) 100,00 %
30.01.2019 07:48 0,5 C 0,0 C -0,6 C 82 % 989,6 hPa 0,0 l/m 0 min 0 min 0 W/m 12,9 km/h (3 Bft) 97,87 %
30.01.2019 07:50 0,6 C 0,0 C -0,6 C 82 % 989,5 hPa 0,0 l/m 0 min 0 min 0 W/m 9,7 km/h (2 Bft) 97,87 %
30.01.2019 07:52 0,5 C 0,0 C -0,6 C 82 % 989,6 hPa 0,0 l/m 0 min 0 min 0 W/m 9,7 km/h (2 Bft) 95,65 %
30.01.2019 07:54 0,6 C 0,0 C -0,6 C 82 % 989,6 hPa 0,0 l/m 0 min 0 min 0 W/m 9,7 km/h (2 Bft) 97,87 %
30.01.2019 07:56 0,6 C 0,0 C -0,6 C 82 % 989,6 hPa 0,0 l/m 0 min 0 min 0 W/m 9,7 km/h (2 Bft) 97,87 %
30.01.2019 07:58 0,6 C 0,0 C -0,6 C 82 % 989,6 hPa 0,0 l/m 0 min 0 min 0 W/m 6,4 km/h (2 Bft) 97,87 %
30.01.2019 08:00 0,6 C 0,0 C -0,6 C 82 % 989,5 hPa 0,0 l/m 0 min 0 min 0 W/m 6,4 km/h (2 Bft) 97,87 %
30.01.2019 08:02 0,6 C 0,0 C -0,6 C 82 % 989,5 hPa 0,0 l/m 0 min 0 min 0 W/m 12,9 km/h (3 Bft) 97,87 %
30.01.2019 08:04 0,6 C 0,0 C -0,6 C 82 % 989,5 hPa 0,0 l/m 0 min 0 min 0 W/m 12,9 km/h (3 Bft) 97,83 %
30.01.2019 08:06 0,6 C 0,0 C -0,6 C 81 % 989,5 hPa 0,0 l/m 0 min 0 min 0 W/m 12,9 km/h (3 Bft) 98,21 %
30.01.2019 08:08 0,6 C 0,0 C -0,6 C 81 % 989,5 hPa 0,0 l/m 0 min 0 min 0 W/m 9,7 km/h (2 Bft) 97,56 %
30.01.2019 08:10 0,6 C 0,0 C -0,6 C 81 % 989,5 hPa 0,0 l/m 0 min 0 min 0 W/m 9,7 km/h (2 Bft) 97,67 %
30.01.2019 08:12 0,6 C 0,0 C -0,6 C 81 % 989,4 hPa 0,0 l/m 0 min 0 min 0 W/m 9,7 km/h (2 Bft) 97,87 %
30.01.2019 08:14 0,6 C 0,0 C -0,6 C 81 % 989,5 hPa 0,0 l/m 0 min 0 min 0 W/m 9,7 km/h (2 Bft) 97,83 %
30.01.2019 08:16 0,6 C 0,0 C -0,6 C 81 % 989,5 hPa 0,0 l/m 0 min 0 min 0 W/m 12,9 km/h (3 Bft) 97,87 %
30.01.2019 08:18 0,6 C 0,0 C -0,6 C 81 % 989,5 hPa 0,0 l/m 0 min 0 min 0 W/m 6,4 km/h (2 Bft) 97,87 %
30.01.2019 08:20 0,6 C 0,0 C -0,6 C 81 % 989,5 hPa 0,0 l/m 0 min 0 min 0 W/m 6,4 km/h (2 Bft) 97,87 %
30.01.2019 08:22 0,6 C 0,0 C -0,6 C 81 % 989,5 hPa 0,0 l/m 0 min 0 min 0 W/m 9,7 km/h (2 Bft) 97,87 %
30.01.2019 08:24 0,6 C 0,0 C -0,6 C 81 % 989,5 hPa 0,0 l/m 0 min 0 min 0 W/m 6,4 km/h (2 Bft) 95,74 %
30.01.2019 08:26 0,6 C 0,0 C -0,6 C 81 % 989,5 hPa 0,0 l/m 0 min 0 min 0 W/m 9,7 km/h (2 Bft) 97,83 %
30.01.2019 08:28 0,6 C 0,0 C -0,6 C 81 % 989,5 hPa 0,0 l/m 0 min 0 min 0 W/m 9,7 km/h (2 Bft) 95,74 %
30.01.2019 08:30 0,6 C 0,0 C -0,6 C 81 % 989,5 hPa 0,0 l/m 0 min 0 min 0 W/m 9,7 km/h (2 Bft) 97,87 %
30.01.2019 08:32 0,6 C 0,0 C -0,6 C 81 % 989,5 hPa 0,0 l/m 0 min 0 min 0 W/m 6,4 km/h (2 Bft) 97,87 %
30.01.2019 08:34 0,6 C 0,0 C -0,6 C 81 % 989,5 hPa 0,0 l/m 0 min 0 min 0 W/m 6,4 km/h (2 Bft) 97,87 %
30.01.2019 08:36 0,6 C 0,0 C -0,6 C 81 % 989,5 hPa 0,0 l/m 0 min 0 min 0 W/m 6,4 km/h (2 Bft) 95,74 %
30.01.2019 08:38 0,6 C 0,0 C -0,6 C 81 % 989,5 hPa 0,0 l/m 0 min 0 min 2 W/m 6,4 km/h (2 Bft) 98,15 %
30.01.2019 08:40 0,6 C 0,0 C -0,6 C 82 % 989,5 hPa 0,0 l/m 0 min 0 min 5 W/m 9,7 km/h (2 Bft) 100,00 %
30.01.2019 08:42 0,6 C 0,0 C -0,6 C 82 % 989,6 hPa 0,0 l/m 0 min 0 min 5 W/m 6,4 km/h (2 Bft) 100,00 %
30.01.2019 08:44 0,6 C 0,0 C -0,6 C 82 % 989,6 hPa 0,0 l/m 0 min 0 min 5 W/m 6,4 km/h (2 Bft) 100,00 %
30.01.2019 08:46 0,5 C 0,0 C -0,6 C 82 % 989,6 hPa 0,0 l/m 0 min 0 min 7 W/m 9,7 km/h (2 Bft) 100,00 %
30.01.2019 08:48 0,5 C 0,0 C -0,6 C 82 % 989,6 hPa 0,0 l/m 0 min 0 min 7 W/m 6,4 km/h (2 Bft) 97,83 %
30.01.2019 08:50 0,5 C 0,0 C -0,6 C 82 % 989,5 hPa 0,0 l/m 0 min 0 min 8 W/m 6,4 km/h (2 Bft) 97,87 %
30.01.2019 08:52 0,5 C 0,0 C -0,6 C 82 % 989,6 hPa 0,0 l/m 0 min 0 min 9 W/m 6,4 km/h (2 Bft) 97,87 %
30.01.2019 08:54 0,5 C 0,0 C -0,6 C 82 % 989,6 hPa 0,0 l/m 0 min 0 min 9 W/m 6,4 km/h (2 Bft) 97,87 %
30.01.2019 08:56 0,5 C 0,0 C -0,6 C 82 % 989,5 hPa 0,0 l/m 0 min 0 min 10 W/m 6,4 km/h (2 Bft) 97,87 %
30.01.2019 08:58 0,5 C 0,0 C -0,6 C 82 % 989,6 hPa 0,0 l/m 0 min 0 min 11 W/m 9,7 km/h (2 Bft) 95,74 %
30.01.2019 09:00 0,6 C 0,6 C -0,6 C 82 % 989,6 hPa 0,0 l/m 0 min 0 min 10 W/m 9,7 km/h (2 Bft) 93,48 %
30.01.2019 09:02 0,6 C 0,6 C -0,6 C 82 % 989,5 hPa 0,0 l/m 0 min 0 min 9 W/m 6,4 km/h (2 Bft) 98,00 %
30.01.2019 09:04 0,6 C 0,6 C -0,6 C 82 % 989,6 hPa 0,0 l/m 0 min 0 min 11 W/m 6,4 km/h (2 Bft) 93,62 %
30.01.2019 09:06 0,6 C 0,6 C -0,6 C 82 % 989,6 hPa 0,0 l/m 0 min 0 min 11 W/m 9,7 km/h (2 Bft) 95,74 %
30.01.2019 09:08 0,6 C 0,6 C -0,6 C 82 % 989,6 hPa 0,0 l/m 0 min 0 min 12 W/m 6,4 km/h (2 Bft) 95,92 %
30.01.2019 09:10 0,6 C 0,6 C 0,0 C 82 % 989,6 hPa 0,0 l/m 0 min 0 min 12 W/m 6,4 km/h (2 Bft) 93,75 %
30.01.2019 09:12 0,7 C 0,6 C 0,0 C 82 % 989,6 hPa 0,0 l/m 0 min 0 min 13 W/m 12,9 km/h (3 Bft) 95,74 %
30.01.2019 09:14 0,7 C 0,6 C 0,0 C 82 % 989,7 hPa 0,0 l/m 0 min 0 min 15 W/m 6,4 km/h (2 Bft) 93,75 %
30.01.2019 09:16 0,7 C 0,6 C 0,0 C 82 % 989,6 hPa 0,0 l/m 0 min 0 min 16 W/m 6,4 km/h (2 Bft) 95,74 %
30.01.2019 09:18 0,7 C 0,6 C 0,0 C 82 % 989,6 hPa 0,0 l/m 0 min 0 min 18 W/m 6,4 km/h (2 Bft) 95,74 %
30.01.2019 09:20 0,7 C 0,6 C 0,0 C 82 % 989,6 hPa 0,0 l/m 0 min 0 min 18 W/m 6,4 km/h (2 Bft) 95,74 %
30.01.2019 09:22 0,7 C 0,6 C 0,0 C 82 % 989,6 hPa 0,0 l/m 0 min 0 min 20 W/m 9,7 km/h (2 Bft) 95,65 %
30.01.2019 09:24 0,7 C 0,6 C 0,0 C 82 % 989,7 hPa 0,0 l/m 0 min 0 min 22 W/m 6,4 km/h (2 Bft) 95,74 %
30.01.2019 09:26 0,7 C 0,6 C 0,0 C 82 % 989,7 hPa 0,0 l/m 0 min 0 min 25 W/m 9,7 km/h (2 Bft) 95,24 %
30.01.2019 09:28 0,8 C 0,6 C 0,0 C 82 % 989,7 hPa 0,0 l/m 0 min 0 min 26 W/m 16,1 km/h (3 Bft) 95,74 %
30.01.2019 09:30 0,8 C 0,6 C 0,0 C 82 % 989,7 hPa 0,0 l/m 0 min 0 min 26 W/m 12,9 km/h (3 Bft) 95,92 %
30.01.2019 09:32 0,8 C 0,6 C 0,0 C 82 % 989,7 hPa 0,0 l/m 0 min 0 min 26 W/m 22,5 km/h (4 Bft) 93,88 %
30.01.2019 09:34 0,8 C 0,0 C 0,0 C 82 % 989,7 hPa 0,0 l/m 0 min 0 min 27 W/m 22,5 km/h (4 Bft) 95,74 %
30.01.2019 09:36 0,8 C 0,0 C -0,6 C 83 % 989,7 hPa 0,0 l/m 0 min 0 min 26 W/m 16,1 km/h (3 Bft) 97,87 %
30.01.2019 09:38 0,7 C 0,0 C -0,6 C 83 % 989,7 hPa 0,0 l/m 0 min 0 min 25 W/m 16,1 km/h (3 Bft) 93,75 %
30.01.2019 09:40 0,7 C -0,6 C -1,1 C 84 % 989,7 hPa 0,0 l/m 0 min 0 min 25 W/m 16,1 km/h (3 Bft) 100,00 %
30.01.2019 09:42 0,7 C -0,6 C -1,1 C 84 % 989,8 hPa 0,0 l/m 0 min 0 min 25 W/m 12,9 km/h (3 Bft) 95,74 %
30.01.2019 09:44 0,6 C -0,6 C -1,1 C 85 % 989,8 hPa 0,0 l/m 0 min 0 min 26 W/m 12,9 km/h (3 Bft) 97,87 %
30.01.2019 09:46 0,6 C -0,6 C -1,1 C 85 % 989,8 hPa 0,0 l/m 0 min 0 min 26 W/m 19,3 km/h (3 Bft) 97,87 %
30.01.2019 09:48 0,5 C -1,1 C -1,1 C 86 % 989,8 hPa 0,0 l/m 0 min 0 min 26 W/m 16,1 km/h (3 Bft) 95,74 %
30.01.2019 09:50 0,5 C -1,1 C -1,1 C 86 % 989,8 hPa 0,0 l/m 0 min 0 min 28 W/m 9,7 km/h (2 Bft) 97,83 %
30.01.2019 09:52 0,5 C -1,1 C -1,1 C 87 % 989,8 hPa 0,0 l/m 0 min 0 min 28 W/m 12,9 km/h (3 Bft) 97,87 %
30.01.2019 09:54 0,5 C -1,1 C -1,1 C 87 % 989,8 hPa 0,0 l/m 0 min 0 min 26 W/m 6,4 km/h (2 Bft) 95,74 %
30.01.2019 09:56 0,4 C -1,1 C -1,1 C 87 % 989,9 hPa 0,0 l/m 0 min 0 min 23 W/m 9,7 km/h (2 Bft) 95,74 %
30.01.2019 09:58 0,4 C -1,1 C -1,1 C 88 % 989,9 hPa 0,0 l/m 0 min 0 min 24 W/m 9,7 km/h (2 Bft) 97,87 %
30.01.2019 10:00 0,3 C -1,1 C -1,1 C 88 % 989,9 hPa 0,0 l/m 0 min 0 min 25 W/m 6,4 km/h (2 Bft) 97,83 %
30.01.2019 10:02 0,3 C -1,1 C -1,1 C 88 % 989,8 hPa 0,0 l/m 0 min 0 min 26 W/m 6,4 km/h (2 Bft) 98,00 %
30.01.2019 10:04 0,3 C -1,1 C -1,1 C 89 % 989,9 hPa 0,0 l/m 0 min 0 min 28 W/m 6,4 km/h (2 Bft) 100,00 %
30.01.2019 10:06 0,2 C -1,1 C -1,1 C 89 % 989,9 hPa 0,0 l/m 0 min 0 min 28 W/m 6,4 km/h (2 Bft) 98,31 %
30.01.2019 10:08 0,2 C -1,1 C -1,1 C 89 % 989,9 hPa 0,0 l/m 0 min 0 min 30 W/m 6,4 km/h (2 Bft) 100,00 %
30.01.2019 10:10 0,2 C -1,1 C -1,1 C 89 % 989,9 hPa 0,0 l/m 0 min 0 min 32 W/m 3,2 km/h (1 Bft) 100,00 %
30.01.2019 10:12 0,1 C -0,6 C -1,1 C 90 % 989,8 hPa 0,0 l/m 0 min 0 min 32 W/m 3,2 km/h (1 Bft) 95,83 %
30.01.2019 10:14 0,1 C -0,6 C -1,1 C 90 % 989,8 hPa 0,0 l/m 0 min 2 min 33 W/m 3,2 km/h (1 Bft) 100,00 %
30.01.2019 10:16 0,1 C -0,6 C -1,1 C 90 % 989,9 hPa 0,0 l/m 0 min 0 min 33 W/m 3,2 km/h (1 Bft) 97,87 %
30.01.2019 10:18 0,1 C -0,6 C -1,1 C 90 % 989,8 hPa 0,0 l/m 0 min 2 min 33 W/m 3,2 km/h (1 Bft) 100,00 %
30.01.2019 10:20 0,1 C -0,6 C -1,1 C 90 % 989,9 hPa 0,0 l/m 0 min 2 min 32 W/m 3,2 km/h (1 Bft) 97,87 %
30.01.2019 10:22 0,1 C -0,6 C -1,1 C 91 % 989,9 hPa 0,0 l/m 0 min 2 min 29 W/m 3,2 km/h (1 Bft) 100,00 %
30.01.2019 10:24 0,1 C -0,6 C -1,1 C 91 % 990,0 hPa 0,0 l/m 0 min 2 min 28 W/m 6,4 km/h (2 Bft) 97,87 %
30.01.2019 10:26 0,0 C -0,6 C -1,1 C 91 % 990,0 hPa 0,0 l/m 0 min 2 min 29 W/m 3,2 km/h (1 Bft) 93,62 %
30.01.2019 10:28 0,0 C -0,6 C -1,1 C 91 % 989,9 hPa 0,0 l/m 0 min 2 min 30 W/m 3,2 km/h (1 Bft) 100,00 %
30.01.2019 10:30 0,0 C -0,6 C -1,1 C 91 % 990,0 hPa 0,0 l/m 0 min 2 min 30 W/m 3,2 km/h (1 Bft) 100,00 %
30.01.2019 10:32 0,0 C -0,6 C -1,1 C 91 % 989,9 hPa 0,0 l/m 0 min 2 min 30 W/m 6,4 km/h (2 Bft) 93,62 %
30.01.2019 10:34 0,0 C -0,6 C -1,1 C 91 % 990,0 hPa 0,0 l/m 0 min 2 min 30 W/m 3,2 km/h (1 Bft) 97,62 %
30.01.2019 10:36 0,0 C -0,6 C -1,1 C 91 % 990,0 hPa 0,0 l/m 0 min 2 min 30 W/m 3,2 km/h (1 Bft) 97,96 %
30.01.2019 10:38 0,0 C -0,6 C -1,1 C 91 % 990,0 hPa 0,0 l/m 0 min 2 min 31 W/m 3,2 km/h (1 Bft) 97,87 %
30.01.2019 10:40 0,1 C -0,6 C -1,1 C 92 % 990,0 hPa 0,0 l/m 0 min 2 min 33 W/m 3,2 km/h (1 Bft) 97,96 %
30.01.2019 10:42 0,1 C -0,6 C -1,1 C 92 % 990,0 hPa 0,0 l/m 0 min 2 min 35 W/m 3,2 km/h (1 Bft) 97,87 %
30.01.2019 10:44 0,1 C -0,6 C -1,1 C 92 % 990,0 hPa 0,0 l/m 0 min 2 min 35 W/m 3,2 km/h (1 Bft) 97,92 %
30.01.2019 10:46 0,1 C -0,6 C -1,1 C 92 % 990,0 hPa 0,0 l/m 0 min 2 min 35 W/m 6,4 km/h (2 Bft) 97,96 %
30.01.2019 10:48 0,1 C -0,6 C -1,1 C 92 % 990,0 hPa 0,0 l/m 0 min 2 min 35 W/m 3,2 km/h (1 Bft) 95,74 %
30.01.2019 10:50 0,1 C -0,6 C -1,1 C 92 % 990,0 hPa 0,0 l/m 0 min 2 min 35 W/m 3,2 km/h (1 Bft) 97,87 %
30.01.2019 10:52 0,1 C -0,6 C -1,1 C 92 % 990,0 hPa 0,0 l/m 0 min 2 min 36 W/m 6,4 km/h (2 Bft) 97,87 %
30.01.2019 10:54 0,1 C -0,6 C -1,1 C 92 % 990,0 hPa 0,0 l/m 0 min 2 min 34 W/m 6,4 km/h (2 Bft) 97,87 %
30.01.2019 10:56 0,1 C -0,6 C -1,1 C 92 % 990,0 hPa 0,0 l/m 0 min 2 min 34 W/m 3,2 km/h (1 Bft) 97,83 %
30.01.2019 10:58 0,1 C -0,6 C -1,1 C 92 % 990,1 hPa 0,0 l/m 0 min 2 min 36 W/m 6,4 km/h (2 Bft) 97,87 %
30.01.2019 11:00 0,1 C -0,6 C -1,1 C 92 % 990,1 hPa 0,0 l/m 0 min 2 min 39 W/m 3,2 km/h (1 Bft) 97,87 %
30.01.2019 11:02 0,1 C -0,6 C -1,1 C 93 % 990,1 hPa 0,0 l/m 0 min 2 min 40 W/m 3,2 km/h (1 Bft) 97,87 %
30.01.2019 11:04 0,1 C -0,6 C -1,1 C 92 % 990,1 hPa 0,0 l/m 0 min 2 min 41 W/m 6,4 km/h (2 Bft) 95,74 %
30.01.2019 11:06 0,1 C -0,6 C -1,1 C 92 % 990,1 hPa 0,0 l/m 0 min 2 min 42 W/m 6,4 km/h (2 Bft) 95,74 %
30.01.2019 11:08 0,1 C -0,6 C -1,1 C 93 % 990,1 hPa 0,0 l/m 0 min 0 min 47 W/m 6,4 km/h (2 Bft) 94,00 %
30.01.2019 11:10 0,1 C -0,6 C -1,1 C 93 % 990,1 hPa 0,0 l/m 0 min 0 min 48 W/m 6,4 km/h (2 Bft) 97,87 %
30.01.2019 11:12 0,2 C -0,6 C -0,6 C 93 % 990,1 hPa 0,0 l/m 0 min 2 min 51 W/m 6,4 km/h (2 Bft) 97,87 %
30.01.2019 11:14 0,2 C -0,6 C -0,6 C 93 % 990,1 hPa 0,0 l/m 0 min 2 min 49 W/m 3,2 km/h (1 Bft) 95,74 %
30.01.2019 11:16 0,2 C -0,6 C -0,6 C 93 % 990,1 hPa 0,0 l/m 0 min 2 min 50 W/m 6,4 km/h (2 Bft) 95,35 %
30.01.2019 11:18 0,2 C -0,6 C -0,6 C 93 % 990,1 hPa 0,0 l/m 0 min 0 min 52 W/m 3,2 km/h (1 Bft) 98,04 %
30.01.2019 11:20 0,2 C -0,6 C -0,6 C 93 % 990,1 hPa 0,0 l/m 0 min 0 min 53 W/m 3,2 km/h (1 Bft) 97,83 %
30.01.2019 11:22 0,1 C -0,6 C -0,6 C 93 % 990,1 hPa 0,0 l/m 0 min 2 min 55 W/m 3,2 km/h (1 Bft) 97,87 %
30.01.2019 11:24 0,1 C -0,6 C -0,6 C 93 % 990,1 hPa 0,0 l/m 0 min 0 min 59 W/m 6,4 km/h (2 Bft) 100,00 %
30.01.2019 11:26 0,2 C -0,6 C -0,6 C 93 % 990,0 hPa 0,0 l/m 0 min 0 min 61 W/m 6,4 km/h (2 Bft) 97,87 %
30.01.2019 11:28 0,2 C -0,6 C -0,6 C 93 % 990,1 hPa 0,0 l/m 0 min 2 min 64 W/m 3,2 km/h (1 Bft) 100,00 %
30.01.2019 11:30 0,1 C -0,6 C -0,6 C 93 % 990,0 hPa 0,0 l/m 0 min 0 min 67 W/m 6,4 km/h (2 Bft) 100,00 %
30.01.2019 11:32 0,1 C -0,6 C -0,6 C 93 % 990,0 hPa 0,0 l/m 0 min 0 min 66 W/m 6,4 km/h (2 Bft) 95,83 %
30.01.2019 11:34 0,2 C -0,6 C -0,6 C 93 % 990,1 hPa 0,0 l/m 0 min 0 min 57 W/m 6,4 km/h (2 Bft) 97,87 %
30.01.2019 11:36 0,2 C -0,6 C -0,6 C 93 % 990,1 hPa 0,0 l/m 0 min 0 min 55 W/m 6,4 km/h (2 Bft) 97,87 %
30.01.2019 11:38 0,1 C -0,6 C -0,6 C 93 % 990,1 hPa 0,0 l/m 0 min 0 min 56 W/m 6,4 km/h (2 Bft) 97,87 %
30.01.2019 11:40 0,1 C -0,6 C -1,1 C 93 % 990,0 hPa 0,0 l/m 0 min 2 min 59 W/m 3,2 km/h (1 Bft) 93,62 %
30.01.2019 11:42 0,1 C -0,6 C -1,1 C 93 % 990,0 hPa 0,0 l/m 0 min 2 min 61 W/m 6,4 km/h (2 Bft) 97,83 %
30.01.2019 11:44 0,1 C -0,6 C -0,6 C 94 % 990,0 hPa 0,0 l/m 0 min 2 min 61 W/m 6,4 km/h (2 Bft) 95,35 %
30.01.2019 11:46 0,1 C -0,6 C -0,6 C 93 % 990,1 hPa 0,0 l/m 0 min 0 min 60 W/m 6,4 km/h (2 Bft) 97,87 %
30.01.2019 11:48 0,1 C -0,6 C -0,6 C 93 % 990,1 hPa 0,0 l/m 0 min 0 min 60 W/m 6,4 km/h (2 Bft) 97,96 %
30.01.2019 11:50 0,1 C -0,6 C -0,6 C 93 % 990,1 hPa 0,0 l/m 0 min 0 min 61 W/m 6,4 km/h (2 Bft) 97,30 %
30.01.2019 11:52 0,1 C -0,6 C -0,6 C 93 % 990,1 hPa 0,0 l/m 0 min 0 min 63 W/m 3,2 km/h (1 Bft) 96,00 %
30.01.2019 11:54 0,1 C -0,6 C -0,6 C 94 % 990,1 hPa 0,0 l/m 0 min 0 min 66 W/m 6,4 km/h (2 Bft) 97,14 %
30.01.2019 11:56 0,1 C -0,6 C -0,6 C 94 % 990,1 hPa 0,0 l/m 0 min 0 min 69 W/m 3,2 km/h (1 Bft) 96,67 %
30.01.2019 11:58 0,1 C -0,6 C -0,6 C 94 % 990,0 hPa 0,0 l/m 0 min 0 min 68 W/m 3,2 km/h (1 Bft) 97,87 %
30.01.2019 12:00 0,1 C -0,6 C -0,6 C 94 % 990,1 hPa 0,0 l/m 0 min 2 min 66 W/m 3,2 km/h (1 Bft) 95,74 %
30.01.2019 12:02 0,1 C -0,6 C -0,6 C 94 % 990,1 hPa 0,2 l/m 0 min 0 min 64 W/m 3,2 km/h (1 Bft) 97,92 %
30.01.2019 12:04 0,1 C -0,6 C -0,6 C 94 % 990,1 hPa 0,0 l/m 0 min 2 min 63 W/m 6,4 km/h (2 Bft) 95,74 %
30.01.2019 12:08 0,1 C -0,6 C -0,6 C 94 % 990,1 hPa 0,0 l/m 0 min 4 min 62 W/m 6,4 km/h (2 Bft) 96,59 %
30.01.2019 12:10 0,1 C -0,6 C -0,6 C 94 % 990,1 hPa 0,0 l/m 0 min 0 min 64 W/m 3,2 km/h (1 Bft) 93,88 %
30.01.2019 12:12 0,1 C 0,0 C -0,6 C 94 % 990,1 hPa 0,0 l/m 0 min 0 min 67 W/m 3,2 km/h (1 Bft) 98,00 %
30.01.2019 12:14 0,1 C 0,0 C -0,6 C 94 % 990,0 hPa 0,0 l/m 0 min 0 min 64 W/m 6,4 km/h (2 Bft) 97,87 %
30.01.2019 12:16 0,1 C 0,0 C -0,6 C 94 % 990,0 hPa 0,0 l/m 0 min 0 min 61 W/m 0,0 km/h (0 Bft) 97,87 %
30.01.2019 12:18 0,1 C 0,0 C -0,6 C 94 % 990,0 hPa 0,0 l/m 0 min 0 min 56 W/m 3,2 km/h (1 Bft) 95,74 %
30.01.2019 12:20 0,1 C 0,0 C -0,6 C 94 % 990,1 hPa 0,0 l/m 0 min 0 min 54 W/m 3,2 km/h (1 Bft) 91,30 %
30.01.2019 12:22 0,1 C 0,0 C -0,6 C 94 % 990,1 hPa 0,0 l/m 0 min 0 min 55 W/m 0,0 km/h (0 Bft) 95,35 %
30.01.2019 12:24 0,1 C 0,0 C -0,6 C 94 % 990,1 hPa 0,0 l/m 0 min 2 min 57 W/m 3,2 km/h (1 Bft) 100,00 %
30.01.2019 12:26 0,1 C 0,0 C -0,6 C 94 % 990,1 hPa 0,0 l/m 0 min 2 min 59 W/m 0,0 km/h (0 Bft) 100,00 %
30.01.2019 12:28 0,1 C 0,0 C -0,6 C 94 % 990,0 hPa 0,0 l/m 0 min 2 min 60 W/m 0,0 km/h (0 Bft) 97,92 %
30.01.2019 12:30 0,1 C -0,6 C -0,6 C 94 % 990,0 hPa 0,0 l/m 0 min 2 min 60 W/m 3,2 km/h (1 Bft) 100,00 %
30.01.2019 12:32 0,2 C -0,6 C -0,6 C 94 % 990,0 hPa 0,0 l/m 0 min 2 min 62 W/m 0,0 km/h (0 Bft) 97,87 %
30.01.2019 12:34 0,2 C -0,6 C -0,6 C 94 % 990,0 hPa 0,0 l/m 0 min 2 min 65 W/m 3,2 km/h (1 Bft) 100,00 %
30.01.2019 12:36 0,2 C -0,6 C -0,6 C 94 % 990,0 hPa 0,0 l/m 0 min 2 min 70 W/m 0,0 km/h (0 Bft) 100,00 %
30.01.2019 12:38 0,2 C -0,6 C -1,1 C 94 % 990,0 hPa 0,0 l/m 0 min 2 min 74 W/m 0,0 km/h (0 Bft) 98,00 %
30.01.2019 12:40 0,2 C -0,6 C -1,1 C 94 % 990,0 hPa 0,0 l/m 0 min 2 min 78 W/m 3,2 km/h (1 Bft) 100,00 %
30.01.2019 12:42 0,2 C -0,6 C -0,6 C 94 % 990,0 hPa 0,0 l/m 0 min 2 min 83 W/m 3,2 km/h (1 Bft) 100,00 %
30.01.2019 12:44 0,2 C -0,6 C -0,6 C 94 % 990,0 hPa 0,0 l/m 0 min 2 min 84 W/m 3,2 km/h (1 Bft) 100,00 %
30.01.2019 12:46 0,2 C -0,6 C -0,6 C 94 % 990,0 hPa 0,0 l/m 0 min 2 min 84 W/m 3,2 km/h (1 Bft) 100,00 %
30.01.2019 12:48 0,2 C -0,6 C -0,6 C 94 % 990,1 hPa 0,0 l/m 0 min 2 min 84 W/m 3,2 km/h (1 Bft) 97,96 %
30.01.2019 12:50 0,2 C -0,6 C -0,6 C 94 % 990,1 hPa 0,0 l/m 0 min 2 min 84 W/m 0,0 km/h (0 Bft) 100,00 %
30.01.2019 12:52 0,2 C -0,6 C -0,6 C 94 % 990,1 hPa 0,0 l/m 0 min 2 min 84 W/m 3,2 km/h (1 Bft) 95,65 %
30.01.2019 12:54 0,2 C -0,6 C -0,6 C 95 % 990,0 hPa 0,0 l/m 0 min 2 min 90 W/m 3,2 km/h (1 Bft) 97,87 %
30.01.2019 12:56 0,2 C -0,6 C -0,6 C 95 % 990,0 hPa 0,2 l/m 0 min 2 min 97 W/m 3,2 km/h (1 Bft) 97,87 %
30.01.2019 12:58 0,3 C -0,6 C -0,6 C 95 % 990,0 hPa 0,0 l/m 0 min 2 min 106 W/m 0,0 km/h (0 Bft) 97,87 %
30.01.2019 13:00 0,3 C 0,0 C -0,6 C 95 % 990,0 hPa 0,0 l/m 0 min 2 min 111 W/m 0,0 km/h (0 Bft) 95,74 %
30.01.2019 13:02 0,3 C 0,0 C -0,6 C 95 % 990,0 hPa 0,0 l/m 0 min 2 min 113 W/m 0,0 km/h (0 Bft) 93,62 %
30.01.2019 13:04 0,3 C 0,0 C -0,6 C 95 % 990,1 hPa 0,0 l/m 0 min 2 min 109 W/m 0,0 km/h (0 Bft) 97,83 %
30.01.2019 13:06 0,4 C 0,0 C 0,0 C 95 % 990,0 hPa 0,0 l/m 0 min 2 min 102 W/m 0,0 km/h (0 Bft) 97,96 %
30.01.2019 13:08 0,4 C 0,0 C -0,6 C 95 % 990,0 hPa 0,0 l/m 0 min 0 min 96 W/m 0,0 km/h (0 Bft) 89,36 %
30.01.2019 13:10 0,4 C 0,0 C 0,0 C 95 % 990,0 hPa 0,0 l/m 0 min 0 min 93 W/m 0,0 km/h (0 Bft) 95,74 %
30.01.2019 13:12 0,4 C 0,0 C 0,0 C 95 % 990,0 hPa 0,0 l/m 0 min 2 min 92 W/m 3,2 km/h (1 Bft) 95,74 %
30.01.2019 13:14 0,4 C 0,0 C 0,0 C 95 % 990,0 hPa 0,0 l/m 0 min 0 min 88 W/m 3,2 km/h (1 Bft) 95,74 %
30.01.2019 13:16 0,5 C 0,0 C -0,6 C 95 % 990,1 hPa 0,2 l/m 0 min 0 min 78 W/m 3,2 km/h (1 Bft) 95,24 %
30.01.2019 13:18 0,5 C 0,0 C -0,6 C 95 % 990,1 hPa 0,0 l/m 0 min 0 min 69 W/m 3,2 km/h (1 Bft) 93,88 %
30.01.2019 13:20 0,5 C 0,0 C -0,6 C 95 % 990,0 hPa 0,0 l/m 0 min 0 min 64 W/m 0,0 km/h (0 Bft) 95,74 %
30.01.2019 13:22 0,5 C 0,0 C -0,6 C 95 % 990,1 hPa 0,0 l/m 0 min 0 min 60 W/m 3,2 km/h (1 Bft) 95,74 %
30.01.2019 13:24 0,5 C 0,0 C -0,6 C 95 % 990,1 hPa 0,0 l/m 0 min 0 min 56 W/m 0,0 km/h (0 Bft) 95,74 %
30.01.2019 13:26 0,5 C 0,0 C -0,6 C 95 % 990,1 hPa 0,2 l/m 0 min 0 min 49 W/m 3,2 km/h (1 Bft) 95,65 %
30.01.2019 13:28 0,5 C 0,0 C -0,6 C 95 % 990,1 hPa 0,0 l/m 0 min 0 min 44 W/m 0,0 km/h (0 Bft) 95,74 %
30.01.2019 13:30 0,5 C 0,0 C -0,6 C 95 % 990,1 hPa 0,0 l/m 0 min 0 min 41 W/m 3,2 km/h (1 Bft) 97,87 %
30.01.2019 13:32 0,5 C 0,0 C -0,6 C 95 % 990,1 hPa 0,0 l/m 0 min 0 min 39 W/m 0,0 km/h (0 Bft) 95,74 %
30.01.2019 13:34 0,5 C 0,0 C -0,6 C 95 % 990,2 hPa 0,0 l/m 0 min 0 min 39 W/m 0,0 km/h (0 Bft) 95,92 %
30.01.2019 13:36 0,5 C 0,0 C -0,6 C 95 % 990,2 hPa 0,0 l/m 0 min 0 min 37 W/m 0,0 km/h (0 Bft) 95,74 %
30.01.2019 13:38 0,5 C 0,0 C -0,6 C 95 % 990,2 hPa 0,0 l/m 0 min 0 min 37 W/m 0,0 km/h (0 Bft) 95,65 %
30.01.2019 13:40 0,5 C -0,6 C -0,6 C 95 % 990,2 hPa 0,0 l/m 0 min 0 min 35 W/m 3,2 km/h (1 Bft) 94,59 %
30.01.2019 13:42 0,5 C -0,6 C -0,6 C 95 % 990,1 hPa 0,0 l/m 0 min 0 min 35 W/m 3,2 km/h (1 Bft) 95,65 %
30.01.2019 13:44 0,5 C -0,6 C -0,6 C 95 % 990,2 hPa 0,0 l/m 0 min 0 min 35 W/m 0,0 km/h (0 Bft) 95,74 %
30.01.2019 13:46 0,4 C -0,6 C -0,6 C 95 % 990,2 hPa 0,0 l/m 0 min 0 min 35 W/m 0,0 km/h (0 Bft) 95,74 %
30.01.2019 13:48 0,4 C -0,6 C -0,6 C 95 % 990,2 hPa 0,0 l/m 0 min 0 min 36 W/m 3,2 km/h (1 Bft) 95,24 %
30.01.2019 13:50 0,4 C 0,0 C -0,6 C 95 % 990,2 hPa 0,0 l/m 0 min 0 min 38 W/m 0,0 km/h (0 Bft) 95,00 %
30.01.2019 13:52 0,4 C 0,0 C -0,6 C 95 % 990,2 hPa 0,0 l/m 0 min 0 min 40 W/m 0,0 km/h (0 Bft) 97,37 %
30.01.2019 13:54 0,4 C 0,0 C -0,6 C 95 % 990,2 hPa 0,0 l/m 0 min 0 min 43 W/m 0,0 km/h (0 Bft) 95,92 %
30.01.2019 13:56 0,4 C 0,0 C -0,6 C 95 % 990,2 hPa 0,0 l/m 0 min 0 min 44 W/m 0,0 km/h (0 Bft) 95,83 %
30.01.2019 13:58 0,4 C 0,0 C -0,6 C 95 % 990,1 hPa 0,0 l/m 0 min 0 min 42 W/m 0,0 km/h (0 Bft) 97,87 %
30.01.2019 14:00 0,4 C 0,0 C -0,6 C 95 % 990,1 hPa 0,0 l/m 0 min 0 min 40 W/m 0,0 km/h (0 Bft) 97,87 %
30.01.2019 14:02 0,4 C 0,0 C -0,6 C 95 % 990,2 hPa 0,0 l/m 0 min 0 min 36 W/m 0,0 km/h (0 Bft) 97,62 %
30.01.2019 14:04 0,4 C 0,0 C -0,6 C 95 % 990,2 hPa 0,0 l/m 0 min 0 min 31 W/m 0,0 km/h (0 Bft) 100,00 %
30.01.2019 14:06 0,4 C 0,0 C -0,6 C 95 % 990,3 hPa 0,2 l/m 0 min 0 min 30 W/m 0,0 km/h (0 Bft) 98,00 %
30.01.2019 14:08 0,4 C -0,6 C -0,6 C 95 % 990,2 hPa 0,0 l/m 0 min 0 min 30 W/m 0,0 km/h (0 Bft) 97,96 %
30.01.2019 14:10 0,4 C 0,0 C -0,6 C 95 % 990,2 hPa 0,0 l/m 0 min 0 min 28 W/m 0,0 km/h (0 Bft) 100,00 %
30.01.2019 14:12 0,4 C 0,0 C -0,6 C 95 % 990,2 hPa 0,0 l/m 0 min 0 min 26 W/m 0,0 km/h (0 Bft) 100,00 %
30.01.2019 14:14 0,4 C 0,0 C -0,6 C 95 % 990,2 hPa 0,0 l/m 0 min 2 min 25 W/m 0,0 km/h (0 Bft) 100,00 %
30.01.2019 14:16 0,4 C 0,0 C -0,6 C 95 % 990,2 hPa 0,0 l/m 0 min 0 min 24 W/m 0,0 km/h (0 Bft) 100,00 %
30.01.2019 14:18 0,4 C -0,6 C -0,6 C 95 % 990,1 hPa 0,0 l/m 0 min 0 min 22 W/m 0,0 km/h (0 Bft) 97,67 %
30.01.2019 14:20 0,4 C -0,6 C -0,6 C 95 % 990,3 hPa 0,0 l/m 0 min 0 min 25 W/m 0,0 km/h (0 Bft) 100,00 %
30.01.2019 14:22 0,4 C -0,6 C -0,6 C 95 % 990,2 hPa 0,0 l/m 0 min 2 min 27 W/m 6,4 km/h (2 Bft) 100,00 %
30.01.2019 14:24 0,4 C -0,6 C -0,6 C 95 % 990,3 hPa 0,0 l/m 0 min 2 min 28 W/m 12,9 km/h (3 Bft) 100,00 %
30.01.2019 14:26 0,4 C -0,6 C -0,6 C 95 % 990,3 hPa 0,0 l/m 0 min 0 min 28 W/m 9,7 km/h (2 Bft) 100,00 %
30.01.2019 14:28 0,3 C -0,6 C -0,6 C 95 % 990,3 hPa 0,0 l/m 0 min 0 min 29 W/m 6,4 km/h (2 Bft) 100,00 %
30.01.2019 14:30 0,3 C -0,6 C -0,6 C 95 % 990,4 hPa 0,0 l/m 0 min 0 min 30 W/m 6,4 km/h (2 Bft) 97,96 %
30.01.2019 14:32 0,3 C -0,6 C -0,6 C 95 % 990,4 hPa 0,0 l/m 0 min 0 min 30 W/m 6,4 km/h (2 Bft) 96,00 %
30.01.2019 14:34 0,3 C -0,6 C -0,6 C 95 % 990,4 hPa 0,0 l/m 0 min 0 min 26 W/m 6,4 km/h (2 Bft) 97,96 %
30.01.2019 14:36 0,3 C -0,6 C -0,6 C 95 % 990,5 hPa 0,0 l/m 0 min 2 min 24 W/m 6,4 km/h (2 Bft) 95,83 %
30.01.2019 14:38 0,3 C -0,6 C -0,6 C 95 % 990,5 hPa 0,0 l/m 0 min 2 min 25 W/m 3,2 km/h (1 Bft) 97,30 %
30.01.2019 14:40 0,3 C -0,6 C -1,1 C 95 % 990,6 hPa 0,0 l/m 0 min 2 min 27 W/m 6,4 km/h (2 Bft) 97,96 %
30.01.2019 14:42 0,3 C -0,6 C -1,1 C 95 % 990,5 hPa 0,0 l/m 0 min 2 min 28 W/m 3,2 km/h (1 Bft) 97,92 %
30.01.2019 14:44 0,3 C -0,6 C -1,1 C 95 % 990,5 hPa 0,0 l/m 0 min 2 min 29 W/m 6,4 km/h (2 Bft) 97,87 %
30.01.2019 14:46 0,2 C -0,6 C -1,1 C 95 % 990,6 hPa 0,0 l/m 0 min 2 min 31 W/m 3,2 km/h (1 Bft) 95,74 %
30.01.2019 14:48 0,2 C -0,6 C -1,1 C 95 % 990,6 hPa 0,0 l/m 0 min 2 min 33 W/m 9,7 km/h (2 Bft) 97,67 %
30.01.2019 14:50 0,2 C -0,6 C -1,1 C 95 % 990,6 hPa 0,0 l/m 0 min 2 min 33 W/m 3,2 km/h (1 Bft) 97,92 %
30.01.2019 14:52 0,2 C -0,6 C -1,1 C 95 % 990,6 hPa 0,0 l/m 0 min 2 min 33 W/m 6,4 km/h (2 Bft) 96,00 %
30.01.2019 14:54 0,2 C -0,6 C -1,1 C 95 % 990,6 hPa 0,0 l/m 0 min 2 min 33 W/m 9,7 km/h (2 Bft) 97,92 %
30.01.2019 14:56 0,2 C -0,6 C -1,1 C 95 % 990,7 hPa 0,0 l/m 0 min 2 min 34 W/m 3,2 km/h (1 Bft) 95,74 %
30.01.2019 14:58 0,2 C -0,6 C -1,1 C 95 % 990,7 hPa 0,0 l/m 0 min 2 min 34 W/m 3,2 km/h (1 Bft) 97,87 %
30.01.2019 15:00 0,2 C -0,6 C -1,1 C 95 % 990,7 hPa 0,0 l/m 0 min 2 min 33 W/m 3,2 km/h (1 Bft) 97,87 %
30.01.2019 15:02 0,2 C -0,6 C -1,1 C 95 % 990,7 hPa 0,0 l/m 0 min 2 min 35 W/m 0,0 km/h (0 Bft) 97,67 %
30.01.2019 15:04 0,2 C -0,6 C -1,1 C 95 % 990,6 hPa 0,0 l/m 0 min 2 min 33 W/m 0,0 km/h (0 Bft) 95,74 %
30.01.2019 15:06 0,2 C -0,6 C -1,1 C 95 % 990,7 hPa 0,0 l/m 0 min 2 min 33 W/m 0,0 km/h (0 Bft) 96,00 %
30.01.2019 15:08 0,2 C -0,6 C -1,1 C 95 % 990,7 hPa 0,0 l/m 0 min 2 min 33 W/m 6,4 km/h (2 Bft) 97,96 %
30.01.2019 15:10 0,2 C -0,6 C -1,1 C 95 % 990,8 hPa 0,0 l/m 0 min 2 min 33 W/m 6,4 km/h (2 Bft) 97,92 %
30.01.2019 15:12 0,2 C -0,6 C -1,1 C 95 % 990,8 hPa 0,0 l/m 0 min 2 min 33 W/m 3,2 km/h (1 Bft) 97,83 %
30.01.2019 15:14 0,2 C -0,6 C -1,1 C 95 % 990,8 hPa 0,0 l/m 0 min 2 min 33 W/m 3,2 km/h (1 Bft) 97,87 %
30.01.2019 15:16 0,2 C -0,6 C -1,1 C 95 % 990,9 hPa 0,0 l/m 0 min 2 min 33 W/m 3,2 km/h (1 Bft) 97,67 %
30.01.2019 15:18 0,2 C -0,6 C -1,1 C 95 % 990,9 hPa 0,0 l/m 0 min 2 min 33 W/m 0,0 km/h (0 Bft) 97,96 %
30.01.2019 15:20 0,2 C -0,6 C -1,1 C 95 % 990,9 hPa 0,0 l/m 0 min 2 min 32 W/m 3,2 km/h (1 Bft) 94,59 %
30.01.2019 15:22 0,2 C -0,6 C -1,1 C 95 % 990,9 hPa 0,0 l/m 0 min 2 min 30 W/m 0,0 km/h (0 Bft) 98,00 %
30.01.2019 15:24 0,2 C -0,6 C -1,1 C 95 % 990,9 hPa 0,0 l/m 0 min 2 min 28 W/m 0,0 km/h (0 Bft) 100,00 %
30.01.2019 15:26 0,2 C -0,6 C -1,1 C 95 % 990,9 hPa 0,0 l/m 0 min 2 min 26 W/m 3,2 km/h (1 Bft) 97,92 %
30.01.2019 15:28 0,2 C -0,6 C -1,1 C 95 % 990,9 hPa 0,0 l/m 0 min 2 min 26 W/m 3,2 km/h (1 Bft) 93,62 %
30.01.2019 15:30 0,2 C -0,6 C -1,1 C 95 % 991,0 hPa 0,0 l/m 0 min 2 min 26 W/m 0,0 km/h (0 Bft) 100,00 %
30.01.2019 15:32 0,2 C -0,6 C -1,1 C 95 % 991,0 hPa 0,0 l/m 0 min 2 min 25 W/m 3,2 km/h (1 Bft) 100,00 %
30.01.2019 15:34 0,2 C -0,6 C -1,1 C 95 % 991,0 hPa 0,0 l/m 0 min 2 min 26 W/m 0,0 km/h (0 Bft) 97,87 %
30.01.2019 15:36 0,2 C -0,6 C -1,1 C 95 % 991,0 hPa 0,0 l/m 0 min 2 min 25 W/m 3,2 km/h (1 Bft) 95,16 %
30.01.2019 15:38 0,2 C -0,6 C -1,1 C 95 % 991,0 hPa 0,0 l/m 0 min 2 min 25 W/m 6,4 km/h (2 Bft) 100,00 %
30.01.2019 15:40 0,2 C -0,6 C -1,1 C 95 % 990,9 hPa 0,0 l/m 0 min 2 min 25 W/m 6,4 km/h (2 Bft) 100,00 %
30.01.2019 15:42 0,2 C -0,6 C -1,1 C 95 % 990,9 hPa 0,0 l/m 0 min 2 min 25 W/m 3,2 km/h (1 Bft) 100,00 %
30.01.2019 15:44 0,2 C -0,6 C -1,1 C 95 % 991,0 hPa 0,0 l/m 0 min 2 min 24 W/m 6,4 km/h (2 Bft) 95,74 %
30.01.2019 15:46 0,2 C -0,6 C -1,1 C 95 % 991,0 hPa 0,0 l/m 0 min 2 min 23 W/m 3,2 km/h (1 Bft) 97,87 %
30.01.2019 15:48 0,2 C -0,6 C -1,1 C 95 % 991,0 hPa 0,0 l/m 0 min 2 min 23 W/m 3,2 km/h (1 Bft) 97,62 %
30.01.2019 15:50 0,2 C -0,6 C -1,1 C 95 % 991,0 hPa 0,0 l/m 0 min 2 min 22 W/m 3,2 km/h (1 Bft) 97,96 %
30.01.2019 15:52 0,1 C -0,6 C -1,1 C 96 % 991,1 hPa 0,0 l/m 0 min 2 min 21 W/m 0,0 km/h (0 Bft) 97,96 %
30.01.2019 15:54 0,1 C -0,6 C -1,1 C 96 % 991,1 hPa 0,0 l/m 0 min 2 min 20 W/m 0,0 km/h (0 Bft) 93,62 %
30.01.2019 15:56 0,1 C -0,6 C -1,1 C 96 % 991,1 hPa 0,0 l/m 0 min 2 min 18 W/m 0,0 km/h (0 Bft) 95,74 %
30.01.2019 15:58 0,1 C -0,6 C -1,1 C 96 % 991,1 hPa 0,0 l/m 0 min 2 min 18 W/m 0,0 km/h (0 Bft) 97,67 %
30.01.2019 16:00 0,1 C -0,6 C -1,1 C 96 % 991,1 hPa 0,0 l/m 0 min 2 min 18 W/m 3,2 km/h (1 Bft) 95,65 %
30.01.2019 16:02 0,1 C -0,6 C -1,1 C 96 % 991,3 hPa 0,0 l/m 0 min 2 min 17 W/m 6,4 km/h (2 Bft) 98,00 %
30.01.2019 16:04 0,1 C -0,6 C -1,1 C 96 % 991,3 hPa 0,0 l/m 0 min 2 min 16 W/m 3,2 km/h (1 Bft) 97,87 %
30.01.2019 16:06 0,1 C -0,6 C -1,1 C 96 % 991,3 hPa 0,0 l/m 0 min 2 min 16 W/m 3,2 km/h (1 Bft) 93,75 %
30.01.2019 16:08 0,1 C -0,6 C -1,1 C 96 % 991,3 hPa 0,0 l/m 0 min 2 min 16 W/m 3,2 km/h (1 Bft) 97,92 %
30.01.2019 16:10 0,1 C -0,6 C -1,1 C 96 % 991,3 hPa 0,0 l/m 0 min 2 min 16 W/m 3,2 km/h (1 Bft) 97,87 %
30.01.2019 16:12 0,1 C -0,6 C -1,1 C 96 % 991,3 hPa 0,0 l/m 0 min 2 min 17 W/m 3,2 km/h (1 Bft) 88,10 %
30.01.2019 16:14 0,1 C -0,6 C -1,1 C 96 % 991,3 hPa 0,0 l/m 0 min 2 min 17 W/m 3,2 km/h (1 Bft) 97,96 %
30.01.2019 16:15 0,1 C -0,6 C -1,1 C 96 % 991,3 hPa 0,0 l/m 0 min 1 min 17 W/m 3,2 km/h (1 Bft) 97,37 %
30.01.2019 16:20 0,1 C -0,6 C -1,1 C 95 % 991,4 hPa 0,0 l/m 0 min 5 min 18 W/m 3,2 km/h (1 Bft) 99,12 %
30.01.2019 16:25 0,1 C -0,6 C -1,1 C 96 % 991,3 hPa 0,0 l/m 0 min 5 min 17 W/m 6,4 km/h (2 Bft) 100,00 %
30.01.2019 16:32 0,0 C -0,6 C -1,1 C 96 % 991,5 hPa 0,2 l/m 0 min 5 min 12 W/m 0,0 km/h (0 Bft) 100,00 %
30.01.2019 16:34 0,0 C -0,6 C -1,1 C 96 % 991,4 hPa 0,0 l/m 0 min 0 min 11 W/m 0,0 km/h (0 Bft) 100,00 %
30.01.2019 16:36 0,0 C -0,6 C -1,1 C 96 % 991,5 hPa 0,0 l/m 0 min 0 min 10 W/m 3,2 km/h (1 Bft) 100,00 %
30.01.2019 16:38 0,0 C -0,6 C -1,1 C 96 % 991,5 hPa 0,0 l/m 0 min 2 min 9 W/m 0,0 km/h (0 Bft) 95,92 %
30.01.2019 16:40 0,0 C -0,6 C -1,1 C 96 % 991,5 hPa 0,0 l/m 0 min 2 min 7 W/m 3,2 km/h (1 Bft) 100,00 %
30.01.2019 16:42 0,0 C -0,6 C -1,1 C 96 % 991,6 hPa 0,0 l/m 0 min 2 min 7 W/m 3,2 km/h (1 Bft) 100,00 %
30.01.2019 16:44 -0,1 C -0,6 C -1,1 C 96 % 991,6 hPa 0,0 l/m 0 min 0 min 5 W/m 3,2 km/h (1 Bft) 100,00 %
30.01.2019 16:46 -0,1 C -0,6 C -1,1 C 96 % 991,6 hPa 0,0 l/m 0 min 2 min 5 W/m 0,0 km/h (0 Bft) 100,00 %
30.01.2019 16:48 -0,1 C -0,6 C -1,1 C 96 % 991,6 hPa 0,0 l/m 0 min 2 min 4 W/m 3,2 km/h (1 Bft) 100,00 %
30.01.2019 16:50 -0,1 C -0,6 C -1,1 C 96 % 991,7 hPa 0,0 l/m 0 min 2 min 0 W/m 0,0 km/h (0 Bft) 100,00 %
30.01.2019 16:52 -0,1 C -0,6 C -1,1 C 96 % 991,7 hPa 0,0 l/m 0 min 2 min 0 W/m 3,2 km/h (1 Bft) 100,00 %
30.01.2019 16:54 -0,1 C -0,6 C -1,1 C 96 % 991,7 hPa 0,0 l/m 0 min 2 min 0 W/m 0,0 km/h (0 Bft) 97,96 %
30.01.2019 16:56 -0,1 C -0,6 C -1,1 C 96 % 991,7 hPa 0,0 l/m 0 min 2 min 0 W/m 0,0 km/h (0 Bft) 97,83 %
30.01.2019 16:58 -0,1 C -0,6 C -1,1 C 96 % 991,8 hPa 0,0 l/m 0 min 2 min 0 W/m 0,0 km/h (0 Bft) 97,73 %
30.01.2019 17:00 -0,1 C -0,6 C -1,1 C 96 % 991,8 hPa 0,0 l/m 0 min 2 min 0 W/m 3,2 km/h (1 Bft) 97,83 %
30.01.2019 17:02 -0,1 C -0,6 C -1,1 C 96 % 991,8 hPa 0,0 l/m 0 min 2 min 0 W/m 0,0 km/h (0 Bft) 94,00 %
30.01.2019 17:04 -0,1 C -0,6 C -1,1 C 96 % 991,8 hPa 0,0 l/m 0 min 2 min 0 W/m 0,0 km/h (0 Bft) 97,87 %
30.01.2019 17:06 -0,1 C -0,6 C -1,1 C 96 % 991,8 hPa 0,0 l/m 0 min 2 min 0 W/m 3,2 km/h (1 Bft) 98,31 %
30.01.2019 17:08 -0,1 C -0,6 C -1,1 C 96 % 991,9 hPa 0,0 l/m 0 min 2 min 0 W/m 3,2 km/h (1 Bft) 97,30 %
30.01.2019 17:10 -0,1 C -0,6 C -1,1 C 96 % 991,9 hPa 0,0 l/m 0 min 2 min 0 W/m 0,0 km/h (0 Bft) 97,92 %
30.01.2019 17:12 -0,1 C -0,6 C -1,1 C 96 % 991,9 hPa 0,0 l/m 0 min 2 min 0 W/m 0,0 km/h (0 Bft) 96,00 %
30.01.2019 17:14 -0,1 C -0,6 C -1,1 C 96 % 991,9 hPa 0,0 l/m 0 min 2 min 0 W/m 3,2 km/h (1 Bft) 97,87 %
30.01.2019 17:16 -0,1 C -0,6 C -1,1 C 96 % 991,9 hPa 0,0 l/m 0 min 2 min 0 W/m 3,2 km/h (1 Bft) 97,87 %
30.01.2019 17:18 -0,1 C -0,6 C -1,1 C 96 % 991,9 hPa 0,0 l/m 0 min 2 min 0 W/m 3,2 km/h (1 Bft) 97,62 %
30.01.2019 17:20 -0,1 C -0,6 C -1,1 C 96 % 991,9 hPa 0,0 l/m 0 min 2 min 0 W/m 3,2 km/h (1 Bft) 95,83 %
30.01.2019 17:22 -0,1 C -0,6 C -1,1 C 96 % 992,0 hPa 0,0 l/m 0 min 2 min 0 W/m 3,2 km/h (1 Bft) 95,74 %
30.01.2019 17:24 -0,1 C -0,6 C -1,1 C 96 % 992,0 hPa 0,0 l/m 0 min 2 min 0 W/m 3,2 km/h (1 Bft) 95,92 %
30.01.2019 17:26 -0,1 C -0,6 C -1,1 C 96 % 992,0 hPa 0,0 l/m 0 min 2 min 0 W/m 0,0 km/h (0 Bft) 95,83 %
30.01.2019 17:28 -0,1 C -0,6 C -1,1 C 96 % 992,0 hPa 0,0 l/m 0 min 2 min 0 W/m 3,2 km/h (1 Bft) 95,74 %
30.01.2019 17:30 -0,1 C -0,6 C -1,1 C 96 % 992,0 hPa 0,0 l/m 0 min 2 min 0 W/m 3,2 km/h (1 Bft) 93,48 %
30.01.2019 17:32 -0,1 C -0,6 C -1,1 C 96 % 992,0 hPa 0,0 l/m 0 min 2 min 0 W/m 3,2 km/h (1 Bft) 95,12 %
30.01.2019 17:34 -0,1 C -0,6 C -1,1 C 96 % 992,0 hPa 0,0 l/m 0 min 2 min 0 W/m 3,2 km/h (1 Bft) 93,88 %
30.01.2019 17:36 -0,1 C -0,6 C -1,1 C 96 % 992,1 hPa 0,0 l/m 0 min 2 min 0 W/m 3,2 km/h (1 Bft) 93,88 %
30.01.2019 17:38 -0,1 C -0,6 C -1,1 C 96 % 992,0 hPa 0,0 l/m 0 min 2 min 0 W/m 0,0 km/h (0 Bft) 93,88 %
30.01.2019 17:40 -0,1 C -0,6 C -1,1 C 96 % 992,1 hPa 0,0 l/m 0 min 2 min 0 W/m 0,0 km/h (0 Bft) 93,62 %
30.01.2019 17:42 -0,1 C -0,6 C -1,1 C 96 % 992,1 hPa 0,0 l/m 0 min 2 min 0 W/m 0,0 km/h (0 Bft) 95,35 %
30.01.2019 17:44 -0,1 C -0,6 C -1,1 C 96 % 992,1 hPa 0,0 l/m 0 min 2 min 0 W/m 3,2 km/h (1 Bft) 95,83 %
30.01.2019 17:46 -0,1 C -0,6 C -1,1 C 96 % 992,1 hPa 0,0 l/m 0 min 2 min 0 W/m 3,2 km/h (1 Bft) 95,92 %
30.01.2019 17:48 -0,1 C -0,6 C -1,1 C 96 % 992,1 hPa 0,0 l/m 0 min 2 min 0 W/m 3,2 km/h (1 Bft) 95,74 %
30.01.2019 17:50 -0,1 C -0,6 C -1,1 C 96 % 992,2 hPa 0,0 l/m 0 min 2 min 0 W/m 3,2 km/h (1 Bft) 92,86 %
30.01.2019 17:52 -0,1 C -0,6 C -1,1 C 96 % 992,2 hPa 0,0 l/m 0 min 2 min 0 W/m 3,2 km/h (1 Bft) 96,00 %
30.01.2019 17:54 -0,1 C -0,6 C -1,1 C 96 % 992,2 hPa 0,0 l/m 0 min 2 min 0 W/m 0,0 km/h (0 Bft) 91,84 %
30.01.2019 17:56 -0,1 C -0,6 C -1,1 C 96 % 992,2 hPa 0,0 l/m 0 min 2 min 0 W/m 0,0 km/h (0 Bft) 95,83 %
30.01.2019 17:58 -0,1 C -0,6 C -1,1 C 96 % 992,2 hPa 0,0 l/m 0 min 2 min 0 W/m 3,2 km/h (1 Bft) 97,87 %
30.01.2019 18:00 -0,1 C -0,6 C -1,1 C 96 % 992,2 hPa 0,0 l/m 0 min 2 min 0 W/m 3,2 km/h (1 Bft) 95,74 %
30.01.2019 18:02 -0,1 C -0,6 C -1,1 C 96 % 992,2 hPa 0,0 l/m 0 min 2 min 0 W/m 3,2 km/h (1 Bft) 95,24 %
30.01.2019 18:04 -0,1 C -0,6 C -1,1 C 96 % 992,3 hPa 0,0 l/m 0 min 2 min 0 W/m 3,2 km/h (1 Bft) 95,74 %
30.01.2019 18:08 0,0 C -0,6 C -1,1 C 96 % 992,4 hPa 0,0 l/m 0 min 4 min 0 W/m 0,0 km/h (0 Bft) 96,94 %
30.01.2019 18:10 -0,1 C -0,6 C -1,1 C 96 % 992,4 hPa 0,0 l/m 0 min 2 min 0 W/m 6,4 km/h (2 Bft) 95,74 %
30.01.2019 18:12 -0,1 C -0,6 C -1,1 C 96 % 992,4 hPa 0,0 l/m 0 min 2 min 0 W/m 3,2 km/h (1 Bft) 93,62 %
30.01.2019 18:14 0,0 C -0,6 C -1,1 C 96 % 992,4 hPa 0,0 l/m 0 min 2 min 0 W/m 3,2 km/h (1 Bft) 92,86 %
30.01.2019 18:16 0,0 C -0,6 C -1,1 C 96 % 992,4 hPa 0,0 l/m 0 min 2 min 0 W/m 3,2 km/h (1 Bft) 97,96 %
30.01.2019 18:18 0,0 C -0,6 C -1,1 C 96 % 992,5 hPa 0,0 l/m 0 min 2 min 0 W/m 3,2 km/h (1 Bft) 97,83 %
30.01.2019 18:20 0,0 C -0,6 C -1,1 C 96 % 992,5 hPa 0,0 l/m 0 min 2 min 0 W/m 3,2 km/h (1 Bft) 97,96 %
30.01.2019 18:22 0,0 C -0,6 C -1,1 C 96 % 992,6 hPa 0,0 l/m 0 min 2 min 0 W/m 3,2 km/h (1 Bft) 97,87 %
30.01.2019 18:24 0,0 C -0,6 C -1,1 C 96 % 992,6 hPa 0,0 l/m 0 min 2 min 0 W/m 3,2 km/h (1 Bft) 97,92 %
30.01.2019 18:26 0,0 C -0,6 C -1,1 C 96 % 992,6 hPa 0,0 l/m 0 min 2 min 0 W/m 3,2 km/h (1 Bft) 97,87 %
30.01.2019 18:28 0,0 C -0,6 C -1,1 C 96 % 992,6 hPa 0,0 l/m 0 min 2 min 0 W/m 3,2 km/h (1 Bft) 95,65 %
30.01.2019 18:30 0,0 C -0,6 C -1,1 C 96 % 992,6 hPa 0,0 l/m 0 min 2 min 0 W/m 3,2 km/h (1 Bft) 97,87 %
30.01.2019 18:32 0,0 C -0,6 C -1,1 C 96 % 992,6 hPa 0,0 l/m 0 min 2 min 0 W/m 3,2 km/h (1 Bft) 97,87 %
30.01.2019 18:34 0,0 C -0,6 C -1,1 C 96 % 992,6 hPa 0,0 l/m 0 min 2 min 0 W/m 3,2 km/h (1 Bft) 95,24 %
30.01.2019 18:36 0,0 C -0,6 C -1,1 C 96 % 992,6 hPa 0,0 l/m 0 min 2 min 0 W/m 3,2 km/h (1 Bft) 93,62 %
30.01.2019 18:38 0,0 C -0,6 C -1,1 C 96 % 992,7 hPa 0,0 l/m 0 min 2 min 0 W/m 3,2 km/h (1 Bft) 95,92 %
30.01.2019 18:40 0,0 C -0,6 C -1,1 C 96 % 992,7 hPa 0,0 l/m 0 min 2 min 0 W/m 3,2 km/h (1 Bft) 97,92 %
30.01.2019 18:42 0,0 C -0,6 C -1,1 C 96 % 992,7 hPa 0,0 l/m 0 min 2 min 0 W/m 3,2 km/h (1 Bft) 97,92 %
30.01.2019 18:44 0,0 C -0,6 C -1,1 C 96 % 992,7 hPa 0,0 l/m 0 min 2 min 0 W/m 3,2 km/h (1 Bft) 97,87 %
30.01.2019 18:46 0,0 C -0,6 C -1,1 C 96 % 992,7 hPa 0,0 l/m 0 min 2 min 0 W/m 3,2 km/h (1 Bft) 97,87 %
30.01.2019 18:48 0,0 C -0,6 C -1,1 C 96 % 992,7 hPa 0,0 l/m 0 min 2 min 0 W/m 0,0 km/h (0 Bft) 95,74 %
30.01.2019 18:50 0,0 C -0,6 C -1,1 C 96 % 992,7 hPa 0,0 l/m 0 min 2 min 0 W/m 3,2 km/h (1 Bft) 97,56 %
30.01.2019 18:52 0,0 C -0,6 C -1,1 C 97 % 992,7 hPa 0,0 l/m 0 min 2 min 0 W/m 6,4 km/h (2 Bft) 95,92 %
30.01.2019 18:54 0,0 C -0,6 C -1,1 C 96 % 992,7 hPa 0,0 l/m 0 min 2 min 0 W/m 3,2 km/h (1 Bft) 97,96 %
30.01.2019 18:56 0,0 C -0,6 C -1,1 C 96 % 992,8 hPa 0,0 l/m 0 min 2 min 0 W/m 6,4 km/h (2 Bft) 97,92 %
30.01.2019 18:58 0,0 C -0,6 C -1,1 C 97 % 992,8 hPa 0,0 l/m 0 min 2 min 0 W/m 3,2 km/h (1 Bft) 97,87 %
30.01.2019 19:00 0,0 C -0,6 C -1,1 C 97 % 992,8 hPa 0,0 l/m 0 min 2 min 0 W/m 6,4 km/h (2 Bft) 97,87 %
30.01.2019 19:02 0,0 C -0,6 C -1,1 C 97 % 992,8 hPa 0,0 l/m 0 min 2 min 0 W/m 3,2 km/h (1 Bft) 97,83 %
30.01.2019 19:04 0,0 C -0,6 C -1,1 C 97 % 992,9 hPa 0,0 l/m 0 min 2 min 0 W/m 0,0 km/h (0 Bft) 97,87 %
30.01.2019 19:06 0,0 C -0,6 C -1,1 C 96 % 992,9 hPa 0,0 l/m 0 min 2 min 0 W/m 0,0 km/h (0 Bft) 95,24 %
30.01.2019 19:08 0,0 C -0,6 C -1,1 C 96 % 992,9 hPa 0,0 l/m 0 min 2 min 0 W/m 0,0 km/h (0 Bft) 100,00 %
30.01.2019 19:10 0,0 C -0,6 C -1,1 C 96 % 992,9 hPa 0,0 l/m 0 min 2 min 0 W/m 3,2 km/h (1 Bft) 100,00 %
30.01.2019 19:12 0,0 C -0,6 C -1,1 C 96 % 992,9 hPa 0,0 l/m 0 min 2 min 0 W/m 3,2 km/h (1 Bft) 100,00 %
30.01.2019 19:14 0,0 C -0,6 C -1,1 C 96 % 992,9 hPa 0,0 l/m 0 min 2 min 0 W/m 3,2 km/h (1 Bft) 100,00 %
30.01.2019 19:16 0,0 C -0,6 C -1,1 C 96 % 992,9 hPa 0,0 l/m 0 min 2 min 0 W/m 3,2 km/h (1 Bft) 95,74 %
30.01.2019 19:18 0,0 C -0,6 C -1,1 C 96 % 992,9 hPa 0,0 l/m 0 min 2 min 0 W/m 3,2 km/h (1 Bft) 100,00 %
30.01.2019 19:20 0,0 C -0,6 C -1,1 C 97 % 992,9 hPa 0,0 l/m 0 min 2 min 0 W/m 0,0 km/h (0 Bft) 95,92 %
30.01.2019 19:22 0,0 C -0,6 C -1,1 C 96 % 992,9 hPa 0,0 l/m 0 min 2 min 0 W/m 3,2 km/h (1 Bft) 100,00 %
30.01.2019 19:24 0,0 C -0,6 C -1,1 C 96 % 992,9 hPa 0,0 l/m 0 min 2 min 0 W/m 3,2 km/h (1 Bft) 100,00 %
30.01.2019 19:26 0,0 C -0,6 C -1,1 C 97 % 992,9 hPa 0,0 l/m 0 min 2 min 0 W/m 0,0 km/h (0 Bft) 100,00 %
30.01.2019 19:28 0,0 C -0,6 C -1,1 C 96 % 993,0 hPa 0,0 l/m 0 min 2 min 0 W/m 3,2 km/h (1 Bft) 100,00 %
30.01.2019 19:30 0,0 C -0,6 C -1,1 C 97 % 992,9 hPa 0,0 l/m 0 min 2 min 0 W/m 3,2 km/h (1 Bft) 100,00 %
30.01.2019 19:32 0,0 C -0,6 C -1,1 C 97 % 992,9 hPa 0,0 l/m 0 min 2 min 0 W/m 3,2 km/h (1 Bft) 100,00 %
30.01.2019 19:34 0,1 C -0,6 C -1,1 C 97 % 993,0 hPa 0,0 l/m 0 min 2 min 0 W/m 3,2 km/h (1 Bft) 100,00 %
30.01.2019 19:36 0,0 C -0,6 C -1,1 C 97 % 993,0 hPa 0,0 l/m 0 min 2 min 0 W/m 6,4 km/h (2 Bft) 100,00 %
30.01.2019 19:38 0,0 C -0,6 C -1,1 C 97 % 992,9 hPa 0,0 l/m 0 min 2 min 0 W/m 3,2 km/h (1 Bft) 100,00 %
30.01.2019 19:40 0,0 C -0,6 C -1,1 C 97 % 993,0 hPa 0,0 l/m 0 min 0 min 0 W/m 3,2 km/h (1 Bft) 100,00 %
30.01.2019 19:42 0,1 C -0,6 C -1,1 C 97 % 993,0 hPa 0,0 l/m 0 min 2 min 0 W/m 6,4 km/h (2 Bft) 100,00 %
30.01.2019 19:44 0,1 C -0,6 C -1,1 C 97 % 993,0 hPa 0,0 l/m 0 min 2 min 0 W/m 3,2 km/h (1 Bft) 100,00 %
30.01.2019 19:46 0,1 C -0,6 C -1,1 C 97 % 993,0 hPa 0,0 l/m 0 min 2 min 0 W/m 3,2 km/h (1 Bft) 100,00 %
30.01.2019 19:48 0,1 C -0,6 C -1,1 C 97 % 993,1 hPa 0,0 l/m 0 min 2 min 0 W/m 3,2 km/h (1 Bft) 97,83 %
30.01.2019 19:50 0,1 C -0,6 C -1,1 C 97 % 993,1 hPa 0,0 l/m 0 min 2 min 0 W/m 3,2 km/h (1 Bft) 100,00 %
30.01.2019 19:52 0,1 C -0,6 C -1,1 C 97 % 993,1 hPa 0,0 l/m 0 min 2 min 0 W/m 0,0 km/h (0 Bft) 100,00 %
30.01.2019 19:54 0,1 C -0,6 C -1,1 C 97 % 993,1 hPa 0,0 l/m 0 min 2 min 0 W/m 0,0 km/h (0 Bft) 100,00 %
30.01.2019 19:56 0,1 C -0,6 C -1,1 C 97 % 993,2 hPa 0,0 l/m 0 min 0 min 0 W/m 0,0 km/h (0 Bft) 100,00 %
30.01.2019 19:58 0,1 C -0,6 C -1,1 C 97 % 993,1 hPa 0,0 l/m 0 min 2 min 0 W/m 0,0 km/h (0 Bft) 100,00 %
30.01.2019 20:00 0,1 C -0,6 C -1,1 C 97 % 993,1 hPa 0,0 l/m 0 min 2 min 0 W/m 3,2 km/h (1 Bft) 97,87 %
30.01.2019 20:02 0,1 C -0,6 C -1,1 C 97 % 993,1 hPa 0,0 l/m 0 min 2 min 0 W/m 6,4 km/h (2 Bft) 97,96 %
30.01.2019 20:04 0,1 C -0,6 C -1,1 C 97 % 993,1 hPa 0,0 l/m 0 min 2 min 0 W/m 3,2 km/h (1 Bft) 100,00 %
30.01.2019 20:06 0,1 C -0,6 C -1,1 C 97 % 993,1 hPa 0,0 l/m 0 min 2 min 0 W/m 3,2 km/h (1 Bft) 100,00 %
30.01.2019 20:08 0,1 C -0,6 C -1,1 C 97 % 993,1 hPa 0,0 l/m 0 min 2 min 0 W/m 3,2 km/h (1 Bft) 97,67 %
30.01.2019 20:10 0,1 C -0,6 C -1,1 C 97 % 993,2 hPa 0,0 l/m 0 min 2 min 0 W/m 3,2 km/h (1 Bft) 100,00 %
30.01.2019 20:12 0,1 C -0,6 C -1,1 C 97 % 993,1 hPa 0,0 l/m 0 min 2 min 0 W/m 6,4 km/h (2 Bft) 100,00 %
30.01.2019 20:14 0,1 C -0,6 C -1,1 C 97 % 993,1 hPa 0,0 l/m 0 min 2 min 0 W/m 3,2 km/h (1 Bft) 95,65 %
30.01.2019 20:16 0,1 C -0,6 C -1,1 C 97 % 993,1 hPa 0,0 l/m 0 min 2 min 0 W/m 6,4 km/h (2 Bft) 94,92 %
30.01.2019 20:18 0,1 C -0,6 C -1,1 C 97 % 993,1 hPa 0,0 l/m 0 min 2 min 0 W/m 3,2 km/h (1 Bft) 97,56 %
30.01.2019 20:20 0,1 C -0,6 C -1,1 C 97 % 993,1 hPa 0,0 l/m 0 min 2 min 0 W/m 0,0 km/h (0 Bft) 97,30 %
30.01.2019 20:22 0,1 C -0,6 C -1,1 C 97 % 993,1 hPa 0,0 l/m 0 min 2 min 0 W/m 6,4 km/h (2 Bft) 98,00 %
30.01.2019 20:24 0,1 C -0,6 C -1,1 C 97 % 993,1 hPa 0,0 l/m 0 min 2 min 0 W/m 3,2 km/h (1 Bft) 98,31 %
30.01.2019 20:26 0,1 C -0,6 C -1,1 C 97 % 993,2 hPa 0,0 l/m 0 min 2 min 0 W/m 3,2 km/h (1 Bft) 95,74 %
30.01.2019 20:28 0,1 C -0,6 C -1,1 C 97 % 993,3 hPa 0,0 l/m 0 min 2 min 0 W/m 3,2 km/h (1 Bft) 97,87 %
30.01.2019 20:30 0,1 C -0,6 C -1,1 C 97 % 993,2 hPa 0,0 l/m 0 min 2 min 0 W/m 0,0 km/h (0 Bft) 96,67 %
30.01.2019 20:32 0,1 C -0,6 C -1,1 C 97 % 993,2 hPa 0,0 l/m 0 min 2 min 0 W/m 6,4 km/h (2 Bft) 96,77 %
30.01.2019 20:34 0,1 C -0,6 C -1,1 C 97 % 993,2 hPa 0,0 l/m 0 min 2 min 0 W/m 6,4 km/h (2 Bft) 97,96 %
30.01.2019 20:36 0,1 C -0,6 C -1,1 C 97 % 993,2 hPa 0,0 l/m 0 min 2 min 0 W/m 6,4 km/h (2 Bft) 97,83 %
30.01.2019 20:38 0,1 C -0,6 C -1,1 C 97 % 993,2 hPa 0,0 l/m 0 min 2 min 0 W/m 6,4 km/h (2 Bft) 95,24 %
30.01.2019 20:40 0,1 C -0,6 C -1,1 C 97 % 993,2 hPa 0,0 l/m 0 min 2 min 0 W/m 3,2 km/h (1 Bft) 95,35 %
30.01.2019 20:42 0,1 C -0,6 C -1,1 C 97 % 993,2 hPa 0,0 l/m 0 min 2 min 0 W/m 3,2 km/h (1 Bft) 92,86 %
30.01.2019 20:44 0,1 C -0,6 C -1,1 C 97 % 993,3 hPa 0,0 l/m 0 min 2 min 0 W/m 3,2 km/h (1 Bft) 95,92 %
30.01.2019 20:46 0,1 C -0,6 C -1,1 C 97 % 993,3 hPa 0,0 l/m 0 min 2 min 0 W/m 3,2 km/h (1 Bft) 94,00 %
30.01.2019 20:48 0,1 C -0,6 C -1,1 C 97 % 993,2 hPa 0,0 l/m 0 min 2 min 0 W/m 3,2 km/h (1 Bft) 93,62 %
30.01.2019 20:50 0,1 C -0,6 C -1,1 C 97 % 993,3 hPa 0,0 l/m 0 min 2 min 0 W/m 9,7 km/h (2 Bft) 90,24 %
30.01.2019 20:52 0,1 C -0,6 C -1,1 C 97 % 993,3 hPa 0,0 l/m 0 min 2 min 0 W/m 9,7 km/h (2 Bft) 89,80 %
30.01.2019 20:54 0,1 C -0,6 C -1,1 C 97 % 993,3 hPa 0,0 l/m 0 min 2 min 0 W/m 6,4 km/h (2 Bft) 95,92 %
30.01.2019 20:56 0,1 C -0,6 C -1,1 C 97 % 993,4 hPa 0,0 l/m 0 min 2 min 0 W/m 3,2 km/h (1 Bft) 95,83 %
30.01.2019 20:58 0,1 C -0,6 C -1,1 C 97 % 993,4 hPa 0,0 l/m 0 min 2 min 0 W/m 3,2 km/h (1 Bft) 95,74 %
30.01.2019 21:00 0,1 C -0,6 C -1,1 C 97 % 993,4 hPa 0,0 l/m 0 min 2 min 0 W/m 3,2 km/h (1 Bft) 93,62 %
30.01.2019 21:02 0,1 C -0,6 C -1,1 C 97 % 993,5 hPa 0,0 l/m 0 min 2 min 0 W/m 0,0 km/h (0 Bft) 95,24 %
30.01.2019 21:04 0,1 C -0,6 C -1,1 C 97 % 993,5 hPa 0,0 l/m 0 min 2 min 0 W/m 6,4 km/h (2 Bft) 95,65 %
30.01.2019 21:06 0,1 C -0,6 C -1,1 C 97 % 993,5 hPa 0,0 l/m 0 min 2 min 0 W/m 6,4 km/h (2 Bft) 94,00 %
30.01.2019 21:08 0,1 C -0,6 C -1,1 C 97 % 993,5 hPa 0,0 l/m 0 min 2 min 0 W/m 3,2 km/h (1 Bft) 93,88 %
30.01.2019 21:10 0,1 C -0,6 C -1,1 C 97 % 993,5 hPa 0,0 l/m 0 min 2 min 0 W/m 0,0 km/h (0 Bft) 93,88 %
30.01.2019 21:12 0,1 C -0,6 C -1,1 C 97 % 993,5 hPa 0,0 l/m 0 min 2 min 0 W/m 6,4 km/h (2 Bft) 93,48 %
30.01.2019 21:14 0,1 C -0,6 C -1,1 C 97 % 993,5 hPa 0,0 l/m 0 min 2 min 0 W/m 6,4 km/h (2 Bft) 95,74 %
30.01.2019 21:16 0,1 C -0,6 C -1,1 C 97 % 993,5 hPa 0,2 l/m 0 min 2 min 0 W/m 3,2 km/h (1 Bft) 95,74 %
30.01.2019 21:18 0,1 C -0,6 C -1,1 C 97 % 993,4 hPa 0,0 l/m 0 min 2 min 0 W/m 6,4 km/h (2 Bft) 97,62 %
30.01.2019 21:20 0,1 C -0,6 C -1,1 C 97 % 993,5 hPa 0,0 l/m 0 min 2 min 0 W/m 3,2 km/h (1 Bft) 95,74 %
30.01.2019 21:22 0,1 C -0,6 C -1,1 C 97 % 993,5 hPa 0,0 l/m 0 min 2 min 0 W/m 6,4 km/h (2 Bft) 96,00 %
30.01.2019 21:24 0,1 C -0,6 C -1,1 C 97 % 993,5 hPa 0,0 l/m 0 min 2 min 0 W/m 3,2 km/h (1 Bft) 95,83 %
30.01.2019 21:26 0,1 C -0,6 C -1,1 C 97 % 993,5 hPa 0,0 l/m 0 min 2 min 0 W/m 9,7 km/h (2 Bft) 95,74 %
30.01.2019 21:28 0,1 C -0,6 C -1,1 C 97 % 993,5 hPa 0,0 l/m 0 min 2 min 0 W/m 0,0 km/h (0 Bft) 95,24 %
30.01.2019 21:30 0,1 C -0,6 C -1,1 C 97 % 993,6 hPa 0,0 l/m 0 min 2 min 0 W/m 3,2 km/h (1 Bft) 95,92 %
30.01.2019 21:32 0,1 C -0,6 C -1,1 C 97 % 993,6 hPa 0,0 l/m 0 min 2 min 0 W/m 3,2 km/h (1 Bft) 94,00 %
30.01.2019 21:34 0,1 C -0,6 C -1,1 C 97 % 993,6 hPa 0,0 l/m 0 min 2 min 0 W/m 3,2 km/h (1 Bft) 93,62 %
30.01.2019 21:36 0,1 C -0,6 C -1,1 C 97 % 993,6 hPa 0,0 l/m 0 min 2 min 0 W/m 9,7 km/h (2 Bft) 95,24 %
30.01.2019 21:38 0,1 C -0,6 C -1,1 C 97 % 993,6 hPa 0,0 l/m 0 min 2 min 0 W/m 3,2 km/h (1 Bft) 95,65 %
30.01.2019 21:40 0,1 C -0,6 C -1,1 C 97 % 993,6 hPa 0,0 l/m 0 min 2 min 0 W/m 3,2 km/h (1 Bft) 95,92 %
30.01.2019 21:42 0,1 C -0,6 C -1,1 C 97 % 993,6 hPa 0,0 l/m 0 min 2 min 0 W/m 3,2 km/h (1 Bft) 96,00 %
30.01.2019 21:44 0,1 C -0,6 C -1,1 C 97 % 993,6 hPa 0,0 l/m 0 min 2 min 0 W/m 3,2 km/h (1 Bft) 97,87 %
30.01.2019 21:46 0,1 C -0,6 C -1,1 C 97 % 993,6 hPa 0,0 l/m 0 min 2 min 0 W/m 0,0 km/h (0 Bft) 97,62 %
30.01.2019 21:48 0,1 C -0,6 C -1,1 C 97 % 993,7 hPa 0,0 l/m 0 min 2 min 0 W/m 6,4 km/h (2 Bft) 95,74 %
30.01.2019 21:50 0,2 C -0,6 C -1,1 C 97 % 993,7 hPa 0,0 l/m 0 min 0 min 0 W/m 3,2 km/h (1 Bft) 100,00 %
30.01.2019 21:52 0,2 C -0,6 C -1,1 C 97 % 993,7 hPa 0,0 l/m 0 min 2 min 0 W/m 3,2 km/h (1 Bft) 100,00 %
30.01.2019 21:54 0,2 C -0,6 C -1,1 C 97 % 993,8 hPa 0,0 l/m 0 min 2 min 0 W/m 3,2 km/h (1 Bft) 97,96 %
30.01.2019 21:56 0,2 C -0,6 C -1,1 C 97 % 993,8 hPa 0,0 l/m 0 min 0 min 0 W/m 3,2 km/h (1 Bft) 100,00 %
30.01.2019 21:58 0,2 C -0,6 C -1,1 C 97 % 993,7 hPa 0,0 l/m 0 min 0 min 0 W/m 3,2 km/h (1 Bft) 100,00 %
30.01.2019 22:00 0,2 C -0,6 C -1,1 C 97 % 993,8 hPa 0,0 l/m 0 min 0 min 0 W/m 3,2 km/h (1 Bft) 100,00 %
30.01.2019 22:02 0,2 C -0,6 C -1,1 C 97 % 993,8 hPa 0,0 l/m 0 min 0 min 0 W/m 3,2 km/h (1 Bft) 97,87 %
30.01.2019 22:04 0,2 C -0,6 C -1,1 C 97 % 993,8 hPa 0,0 l/m 0 min 0 min 0 W/m 3,2 km/h (1 Bft) 95,74 %
30.01.2019 22:06 0,2 C -0,6 C -1,1 C 97 % 993,9 hPa 0,0 l/m 0 min 0 min 0 W/m 3,2 km/h (1 Bft) 100,00 %
30.01.2019 22:08 0,2 C -0,6 C -1,1 C 97 % 993,8 hPa 0,0 l/m 0 min 0 min 0 W/m 3,2 km/h (1 Bft) 100,00 %
30.01.2019 22:10 0,2 C -0,6 C -1,1 C 97 % 993,8 hPa 0,0 l/m 0 min 0 min 0 W/m 6,4 km/h (2 Bft) 100,00 %
30.01.2019 22:12 0,2 C -0,6 C -1,1 C 97 % 993,8 hPa 0,0 l/m 0 min 0 min 0 W/m 6,4 km/h (2 Bft) 100,00 %
30.01.2019 22:14 0,2 C 0,0 C -1,1 C 97 % 993,8 hPa 0,0 l/m 0 min 0 min 0 W/m 6,4 km/h (2 Bft) 100,00 %
30.01.2019 22:16 0,2 C 0,0 C -1,1 C 97 % 993,8 hPa 0,0 l/m 0 min 0 min 0 W/m 6,4 km/h (2 Bft) 100,00 %
30.01.2019 22:18 0,3 C 0,0 C -1,1 C 97 % 993,8 hPa 0,0 l/m 0 min 0 min 0 W/m 6,4 km/h (2 Bft) 100,00 %
30.01.2019 22:20 0,3 C 0,0 C -1,1 C 97 % 993,9 hPa 0,0 l/m 0 min 0 min 0 W/m 3,2 km/h (1 Bft) 100,00 %
30.01.2019 22:22 0,3 C 0,0 C -1,1 C 97 % 993,9 hPa 0,0 l/m 0 min 0 min 0 W/m 3,2 km/h (1 Bft) 97,83 %
30.01.2019 22:24 0,3 C 0,0 C -1,1 C 97 % 993,9 hPa 0,0 l/m 0 min 0 min 0 W/m 3,2 km/h (1 Bft) 100,00 %
30.01.2019 22:26 0,3 C 0,0 C -1,1 C 97 % 993,9 hPa 0,0 l/m 0 min 0 min 0 W/m 3,2 km/h (1 Bft) 97,87 %
30.01.2019 22:28 0,3 C 0,0 C -1,1 C 97 % 994,0 hPa 0,0 l/m 0 min 2 min 0 W/m 9,7 km/h (2 Bft) 100,00 %
30.01.2019 22:30 0,3 C 0,0 C -1,1 C 97 % 994,0 hPa 0,0 l/m 0 min 0 min 0 W/m 3,2 km/h (1 Bft) 95,74 %
30.01.2019 22:32 0,3 C 0,0 C -1,1 C 97 % 993,9 hPa 0,0 l/m 0 min 0 min 0 W/m 3,2 km/h (1 Bft) 100,00 %
30.01.2019 22:34 0,3 C -0,6 C -1,1 C 97 % 993,9 hPa 0,0 l/m 0 min 0 min 0 W/m 6,4 km/h (2 Bft) 100,00 %
30.01.2019 22:36 0,3 C -0,6 C -1,1 C 97 % 993,8 hPa 0,0 l/m 0 min 0 min 0 W/m 3,2 km/h (1 Bft) 98,08 %
30.01.2019 22:38 0,3 C -0,6 C -1,1 C 97 % 993,8 hPa 0,0 l/m 0 min 0 min 0 W/m 3,2 km/h (1 Bft) 100,00 %
30.01.2019 22:40 0,3 C -0,6 C -1,1 C 97 % 993,8 hPa 0,0 l/m 0 min 0 min 0 W/m 9,7 km/h (2 Bft) 100,00 %
30.01.2019 22:42 0,3 C -0,6 C -1,1 C 97 % 993,8 hPa 0,0 l/m 0 min 0 min 0 W/m 6,4 km/h (2 Bft) 100,00 %
30.01.2019 22:44 0,3 C -0,6 C -1,1 C 97 % 993,8 hPa 0,0 l/m 0 min 0 min 0 W/m 6,4 km/h (2 Bft) 97,87 %
30.01.2019 22:46 0,3 C -0,6 C -1,1 C 97 % 993,8 hPa 0,0 l/m 0 min 0 min 0 W/m 6,4 km/h (2 Bft) 100,00 %
30.01.2019 22:48 0,3 C -0,6 C -1,1 C 97 % 993,9 hPa 0,0 l/m 0 min 0 min 0 W/m 6,4 km/h (2 Bft) 97,87 %
30.01.2019 22:50 0,2 C -0,6 C -1,1 C 97 % 993,8 hPa 0,0 l/m 0 min 0 min 0 W/m 6,4 km/h (2 Bft) 97,87 %
30.01.2019 22:52 0,2 C -0,6 C -1,1 C 97 % 993,8 hPa 0,0 l/m 0 min 0 min 0 W/m 3,2 km/h (1 Bft) 100,00 %
30.01.2019 22:54 0,2 C -0,6 C -1,1 C 97 % 993,8 hPa 0,0 l/m 0 min 0 min 0 W/m 3,2 km/h (1 Bft) 100,00 %
30.01.2019 22:56 0,2 C -0,6 C -1,1 C 97 % 993,8 hPa 0,0 l/m 0 min 0 min 0 W/m 3,2 km/h (1 Bft) 100,00 %
30.01.2019 22:58 0,2 C -0,6 C -1,1 C 97 % 993,9 hPa 0,0 l/m 0 min 0 min 0 W/m 6,4 km/h (2 Bft) 97,87 %
30.01.2019 23:00 0,2 C -0,6 C -1,1 C 97 % 993,8 hPa 0,0 l/m 0 min 0 min 0 W/m 6,4 km/h (2 Bft) 97,87 %
30.01.2019 23:02 0,1 C -0,6 C -1,1 C 97 % 993,9 hPa 0,0 l/m 0 min 0 min 0 W/m 6,4 km/h (2 Bft) 97,87 %
30.01.2019 23:04 0,1 C -0,6 C -1,1 C 97 % 993,9 hPa 0,0 l/m 0 min 0 min 0 W/m 3,2 km/h (1 Bft) 97,87 %
30.01.2019 23:06 0,1 C -0,6 C -1,1 C 97 % 993,9 hPa 0,0 l/m 0 min 0 min 0 W/m 9,7 km/h (2 Bft) 95,74 %
30.01.2019 23:08 0,1 C -0,6 C -1,1 C 97 % 993,9 hPa 0,0 l/m 0 min 0 min 0 W/m 16,1 km/h (3 Bft) 95,65 %
30.01.2019 23:10 0,1 C -0,6 C -1,1 C 97 % 993,9 hPa 0,0 l/m 0 min 0 min 0 W/m 3,2 km/h (1 Bft) 97,87 %
30.01.2019 23:12 0,1 C -0,6 C -1,1 C 97 % 993,9 hPa 0,0 l/m 0 min 0 min 0 W/m 3,2 km/h (1 Bft) 97,87 %
30.01.2019 23:14 0,1 C -0,6 C -1,1 C 97 % 993,9 hPa 0,0 l/m 0 min 0 min 0 W/m 9,7 km/h (2 Bft) 97,87 %
30.01.2019 23:16 0,1 C -0,6 C -1,1 C 97 % 994,0 hPa 0,0 l/m 0 min 0 min 0 W/m 9,7 km/h (2 Bft) 95,74 %
30.01.2019 23:18 0,1 C -0,6 C -1,1 C 97 % 993,9 hPa 0,0 l/m 0 min 0 min 0 W/m 12,9 km/h (3 Bft) 95,74 %
30.01.2019 23:20 0,1 C -0,6 C -1,1 C 97 % 994,0 hPa 0,0 l/m 0 min 0 min 0 W/m 3,2 km/h (1 Bft) 95,65 %
30.01.2019 23:22 0,1 C -0,6 C -1,1 C 97 % 993,9 hPa 0,0 l/m 0 min 0 min 0 W/m 3,2 km/h (1 Bft) 97,87 %
30.01.2019 23:24 0,1 C -0,6 C -1,1 C 97 % 993,9 hPa 0,0 l/m 0 min 0 min 0 W/m 6,4 km/h (2 Bft) 95,74 %
30.01.2019 23:26 0,1 C -0,6 C -1,1 C 97 % 993,9 hPa 0,0 l/m 0 min 0 min 0 W/m 6,4 km/h (2 Bft) 93,62 %
30.01.2019 23:28 0,1 C -0,6 C -1,1 C 97 % 994,0 hPa 0,0 l/m 0 min 0 min 0 W/m 6,4 km/h (2 Bft) 97,87 %
30.01.2019 23:30 0,0 C -0,6 C -1,1 C 97 % 993,9 hPa 0,0 l/m 0 min 0 min 0 W/m 6,4 km/h (2 Bft) 97,87 %
30.01.2019 23:32 0,0 C -0,6 C -1,1 C 97 % 993,9 hPa 0,0 l/m 0 min 0 min 0 W/m 3,2 km/h (1 Bft) 97,83 %
30.01.2019 23:34 0,0 C -0,6 C -1,1 C 97 % 994,0 hPa 0,0 l/m 0 min 0 min 0 W/m 6,4 km/h (2 Bft) 95,74 %
30.01.2019 23:36 0,0 C -0,6 C -1,1 C 97 % 994,0 hPa 0,0 l/m 0 min 0 min 0 W/m 9,7 km/h (2 Bft) 95,74 %
30.01.2019 23:38 -0,1 C -0,6 C -1,1 C 97 % 994,0 hPa 0,0 l/m 0 min 0 min 0 W/m 9,7 km/h (2 Bft) 93,62 %
30.01.2019 23:40 -0,1 C -0,6 C -1,1 C 97 % 994,1 hPa 0,0 l/m 0 min 0 min 0 W/m 6,4 km/h (2 Bft) 97,87 %
30.01.2019 23:42 -0,1 C -0,6 C -1,1 C 97 % 994,0 hPa 0,0 l/m 0 min 0 min 0 W/m 9,7 km/h (2 Bft) 95,65 %
30.01.2019 23:44 -0,1 C -0,6 C -1,1 C 97 % 994,1 hPa 0,0 l/m 0 min 0 min 0 W/m 9,7 km/h (2 Bft) 97,87 %
30.01.2019 23:46 -0,1 C -0,6 C -1,1 C 97 % 994,0 hPa 0,0 l/m 0 min 0 min 0 W/m 9,7 km/h (2 Bft) 95,74 %
30.01.2019 23:48 -0,1 C -0,6 C -1,1 C 97 % 994,0 hPa 0,0 l/m 0 min 0 min 0 W/m 3,2 km/h (1 Bft) 97,87 %
30.01.2019 23:50 -0,1 C -0,6 C -1,1 C 97 % 994,1 hPa 0,0 l/m 0 min 0 min 0 W/m 9,7 km/h (2 Bft) 95,74 %
30.01.2019 23:52 -0,2 C -0,6 C -1,1 C 97 % 994,1 hPa 0,0 l/m 0 min 0 min 0 W/m 9,7 km/h (2 Bft) 97,87 %
30.01.2019 23:54 -0,2 C -0,6 C -1,1 C 97 % 994,1 hPa 0,0 l/m 0 min 0 min 0 W/m 6,4 km/h (2 Bft) 93,48 %
30.01.2019 23:56 -0,2 C -0,6 C -1,1 C 97 % 994,1 hPa 0,0 l/m 0 min 0 min 0 W/m 9,7 km/h (2 Bft) 97,87 %
30.01.2019 23:58 -0,2 C -0,6 C -1,1 C 97 % 994,1 hPa 0,0 l/m 0 min 0 min 0 W/m 9,7 km/h (2 Bft) 97,87 %
_ Min-Zeit 23:52 05:00 04:34 00:00 08:12 - - - - 12:16 00:02
Minimum _ -0,2 C -1,1 C -1,7 C 81 % 989,4 hPa - - - - 0,0 km/h (0 Bft) 14,29 %
_ Max-Zeit 00:00 00:00 00:00 18:52 00:00 12:02 00:00 16:20 13:02 00:00 00:14
Maximum _ 1,4 C 1,1 C 0,0 C 97 % 994,1 hPa 0,2 l/m 0 min 5 min 113 W/m 25,7 km/h
O-SO (4 Bft)
100,00 %
Durchschnitt _ 0,3 C -0,3 C -0,9 C 91 % 991,4 hPa #1,4 l/m #0 min. #9:16 h 38 W/m 6,2 km/h (2 Bft) 97,27 %
© 2019 W. Hausmann